Time,TemperatureF,DewpointF,PressureIn,WindDirection,WindDirectionDegrees,WindSpeedMPH,WindSpeedGustMPH,Humidity,HourlyPrecipIn,Conditions,Clouds,dailyrainin,SolarRadiationWatts/m^2,SoftwareType,DateUTC
2014-04-19 00:00:00,51.8,36.6,30.18,SE,131,2.0,5.0,56,0.00,,CLR,0.00,0.00,VWS V14.00,2014-04-19 05:00:00,
2014-04-19 00:01:00,51.8,36.6,30.18,SE,131,4.0,5.0,56,0.00,,CLR,0.00,0.00,VWS V14.00,2014-04-19 05:01:00,
2014-04-19 00:03:00,51.7,36.5,30.18,ESE,122,5.0,6.0,56,0.00,,CLR,0.00,0.00,VWS V14.00,2014-04-19 05:03:00,
2014-04-19 00:04:00,51.7,36.5,30.18,SE,127,2.0,5.0,56,0.00,,CLR,0.00,0.00,VWS V14.00,2014-04-19 05:04:00,
2014-04-19 00:05:00,51.7,36.5,30.18,SE,127,2.0,5.0,56,0.00,,CLR,0.00,0.00,VWS V14.00,2014-04-19 05:05:00,
2014-04-19 00:06:00,51.7,36.5,30.18,SE,132,5.0,5.0,56,0.00,,CLR,0.00,0.00,VWS V14.00,2014-04-19 05:06:00,
2014-04-19 00:08:00,51.6,36.4,30.18,SE,141,4.0,5.0,56,0.00,,CLR,0.00,0.00,VWS V14.00,2014-04-19 05:08:00,
2014-04-19 00:09:00,51.6,36.4,30.18,SE,141,1.0,5.0,56,0.00,,CLR,0.00,0.00,VWS V14.00,2014-04-19 05:09:00,
2014-04-19 00:10:00,51.5,36.3,30.18,SE,140,4.0,5.0,56,0.00,,CLR,0.00,0.00,VWS V14.00,2014-04-19 05:10:00,
2014-04-19 00:11:00,51.5,36.3,30.18,SE,146,4.0,5.0,56,0.00,,CLR,0.00,0.00,VWS V14.00,2014-04-19 05:11:00,
2014-04-19 00:13:00,51.5,36.3,30.18,SE,141,2.0,4.0,56,0.00,,CLR,0.00,0.00,VWS V14.00,2014-04-19 05:13:00,
2014-04-19 00:14:00,51.5,36.3,30.18,SSE,155,2.0,4.0,56,0.00,,CLR,0.00,0.00,VWS V14.00,2014-04-19 05:14:00,
2014-04-19 00:15:00,51.5,36.3,30.18,SSE,154,6.0,6.0,56,0.00,,CLR,0.00,0.00,VWS V14.00,2014-04-19 05:15:00,
2014-04-19 00:16:00,51.5,36.3,30.18,SE,142,5.0,7.0,56,0.00,,CLR,0.00,0.00,VWS V14.00,2014-04-19 05:16:00,
2014-04-19 00:19:00,51.5,36.3,30.18,SE,146,5.0,5.0,56,0.00,,CLR,0.00,0.00,VWS V14.00,2014-04-19 05:19:00,
2014-04-19 00:20:00,51.6,36.4,30.18,SE,130,5.0,6.0,56,0.00,,CLR,0.00,0.00,VWS V14.00,2014-04-19 05:20:00,
2014-04-19 00:21:00,51.6,36.0,30.18,SE,144,6.0,6.0,55,0.00,,CLR,0.00,0.00,VWS V14.00,2014-04-19 05:21:00,
2014-04-19 00:22:00,51.7,36.1,30.18,SSE,150,7.0,8.0,55,0.00,,CLR,0.00,0.00,VWS V14.00,2014-04-19 05:22:00,
2014-04-19 00:24:00,51.8,36.2,30.18,SE,138,5.0,6.0,55,0.00,,CLR,0.00,0.00,VWS V14.00,2014-04-19 05:24:00,
2014-04-19 00:25:00,51.9,36.3,30.18,SE,142,6.0,7.0,55,0.00,,CLR,0.00,0.00,VWS V14.00,2014-04-19 05:25:00,
2014-04-19 00:26:00,52.0,35.9,30.18,SE,134,4.0,7.0,54,0.00,,CLR,0.00,0.00,VWS V14.00,2014-04-19 05:26:00,
2014-04-19 00:27:00,52.0,36.3,30.17,SE,142,5.0,7.0,55,0.00,,CLR,0.00,0.00,VWS V14.00,2014-04-19 05:27:00,
2014-04-19 00:29:00,52.1,36.0,30.17,SE,140,6.0,8.0,54,0.00,,CLR,0.00,0.00,VWS V14.00,2014-04-19 05:29:00,
2014-04-19 00:30:00,52.1,36.0,30.17,SE,136,6.0,8.0,54,0.00,,CLR,0.00,0.00,VWS V14.00,2014-04-19 05:30:00,
2014-04-19 00:31:00,52.2,36.1,30.17,SE,134,5.0,8.0,54,0.00,,CLR,0.00,0.00,VWS V14.00,2014-04-19 05:31:00,
2014-04-19 00:32:00,52.3,36.2,30.17,SE,134,7.0,8.0,54,0.00,,CLR,0.00,0.00,VWS V14.00,2014-04-19 05:32:00,
2014-04-19 00:34:00,52.4,35.8,30.17,SE,139,6.0,8.0,53,0.00,,CLR,0.00,0.00,VWS V14.00,2014-04-19 05:34:00,
2014-04-19 00:35:00,52.5,35.9,30.17,SE,135,5.0,8.0,53,0.00,,CLR,0.00,0.00,VWS V14.00,2014-04-19 05:35:00,
2014-04-19 00:36:00,52.5,35.9,30.17,SE,142,5.0,8.0,53,0.00,,CLR,0.00,0.00,VWS V14.00,2014-04-19 05:36:00,
2014-04-19 00:37:00,52.6,36.0,30.17,SE,142,6.0,8.0,53,0.00,,CLR,0.00,0.00,VWS V14.00,2014-04-19 05:37:00,
2014-04-19 00:39:00,52.7,36.1,30.17,SE,138,5.0,6.0,53,0.00,,CLR,0.00,0.00,VWS V14.00,2014-04-19 05:39:00,
2014-04-19 00:40:00,52.7,36.1,30.17,SE,132,5.0,7.0,53,0.00,,CLR,0.00,0.00,VWS V14.00,2014-04-19 05:40:00,
2014-04-19 00:41:00,52.7,36.1,30.17,SE,141,6.0,7.0,53,0.00,,CLR,0.00,0.00,VWS V14.00,2014-04-19 05:41:00,
2014-04-19 00:42:00,52.8,36.2,30.17,SE,139,7.0,7.0,53,0.00,,CLR,0.00,0.00,VWS V14.00,2014-04-19 05:42:00,
2014-04-19 00:44:00,52.8,36.2,30.17,SSE,159,5.0,8.0,53,0.00,,CLR,0.00,0.00,VWS V14.00,2014-04-19 05:44:00,
2014-04-19 00:45:00,52.9,35.8,30.17,SE,144,5.0,8.0,52,0.00,,CLR,0.00,0.00,VWS V14.00,2014-04-19 05:45:00,
2014-04-19 00:46:00,52.9,35.8,30.17,SE,146,4.0,8.0,52,0.00,,CLR,0.00,0.00,VWS V14.00,2014-04-19 05:46:00,
2014-04-19 00:47:00,52.9,35.8,30.17,SE,138,7.0,8.0,52,0.00,,CLR,0.00,0.00,VWS V14.00,2014-04-19 05:47:00,
2014-04-19 00:50:00,52.9,35.8,30.17,SE,146,8.0,8.0,52,0.00,,CLR,0.00,0.00,VWS V14.00,2014-04-19 05:50:00,
2014-04-19 00:51:00,53.0,35.9,30.17,SE,140,7.0,9.0,52,0.00,,CLR,0.00,0.00,VWS V14.00,2014-04-19 05:51:00,
2014-04-19 00:52:00,53.0,35.9,30.17,SSE,149,5.0,9.0,52,0.00,,CLR,0.00,0.00,VWS V14.00,2014-04-19 05:52:00,
2014-04-19 00:53:00,53.0,35.9,30.17,SE,137,6.0,7.0,52,0.00,,CLR,0.00,0.00,VWS V14.00,2014-04-19 05:53:00,
2014-04-19 00:55:00,53.0,35.9,30.17,SE,144,4.0,9.0,52,0.00,,CLR,0.00,0.00,VWS V14.00,2014-04-19 05:55:00,
2014-04-19 00:57:00,53.0,35.9,30.17,SSE,147,8.0,9.0,52,0.00,,CLR,0.00,0.00,VWS V14.00,2014-04-19 05:57:00,
2014-04-19 00:58:00,53.0,35.9,30.17,SSE,164,6.0,9.0,52,0.00,,CLR,0.00,0.00,VWS V14.00,2014-04-19 05:58:00,
2014-04-19 01:00:00,53.0,35.9,30.17,SSE,147,5.0,7.0,52,0.00,,CLR,0.00,0.00,VWS V14.00,2014-04-19 06:00:00,
2014-04-19 01:02:00,53.0,35.9,30.17,SE,144,4.0,7.0,52,0.00,,CLR,0.00,0.00,VWS V14.00,2014-04-19 06:02:00,
2014-04-19 01:03:00,53.0,35.9,30.17,SE,135,5.0,5.0,52,0.00,,CLR,0.00,0.00,VWS V14.00,2014-04-19 06:03:00,
2014-04-19 01:04:00,52.9,35.8,30.17,SE,134,5.0,7.0,52,0.00,,CLR,0.00,0.00,VWS V14.00,2014-04-19 06:04:00,
2014-04-19 01:05:00,52.9,35.8,30.17,SE,137,6.0,7.0,52,0.00,,CLR,0.00,0.00,VWS V14.00,2014-04-19 06:05:00,
2014-04-19 01:07:00,52.8,35.7,30.17,SE,146,7.0,8.0,52,0.00,,CLR,0.00,0.00,VWS V14.00,2014-04-19 06:07:00,
2014-04-19 01:08:00,52.9,35.8,30.17,SSE,165,4.0,6.0,52,0.00,,CLR,0.00,0.00,VWS V14.00,2014-04-19 06:08:00,
2014-04-19 01:09:00,52.9,35.8,30.17,SE,141,5.0,7.0,52,0.00,,CLR,0.00,0.00,VWS V14.00,2014-04-19 06:09:00,
2014-04-19 01:11:00,52.8,35.7,30.17,SE,146,4.0,7.0,52,0.00,,CLR,0.00,0.00,VWS V14.00,2014-04-19 06:11:00,
2014-04-19 01:12:00,52.8,35.7,30.17,SE,146,5.0,7.0,52,0.00,,CLR,0.00,0.00,VWS V14.00,2014-04-19 06:12:00,
2014-04-19 01:13:00,52.8,36.2,30.17,SE,146,5.0,7.0,53,0.00,,CLR,0.00,0.00,VWS V14.00,2014-04-19 06:13:00,
2014-04-19 01:14:00,52.7,36.1,30.17,SSE,147,2.0,6.0,53,0.00,,CLR,0.00,0.00,VWS V14.00,2014-04-19 06:14:00,
2014-04-19 01:15:00,52.7,36.1,30.17,SE,144,6.0,6.0,53,0.00,,CLR,0.00,0.00,VWS V14.00,2014-04-19 06:15:00,
2014-04-19 01:16:00,52.6,36.0,30.17,SSE,157,2.0,6.0,53,0.00,,CLR,0.00,0.00,VWS V14.00,2014-04-19 06:16:00,
2014-04-19 01:18:00,52.6,36.0,30.17,South,171,2.0,6.0,53,0.00,,CLR,0.00,0.00,VWS V14.00,2014-04-19 06:18:00,
2014-04-19 01:19:00,52.5,35.9,30.17,SSE,165,1.0,5.0,53,0.00,,CLR,0.00,0.00,VWS V14.00,2014-04-19 06:19:00,
2014-04-19 01:20:00,52.5,35.9,30.17,SSE,161,5.0,6.0,53,0.00,,CLR,0.00,0.00,VWS V14.00,2014-04-19 06:20:00,
2014-04-19 01:21:00,52.4,35.8,30.17,SSE,163,2.0,6.0,53,0.00,,CLR,0.00,0.00,VWS V14.00,2014-04-19 06:21:00,
2014-04-19 01:23:00,52.3,35.7,30.17,SSE,161,2.0,4.0,53,0.00,,CLR,0.00,0.00,VWS V14.00,2014-04-19 06:23:00,
2014-04-19 01:24:00,52.3,35.7,30.17,SSE,150,2.0,6.0,53,0.00,,CLR,0.00,0.00,VWS V14.00,2014-04-19 06:24:00,
2014-04-19 01:25:00,52.3,36.2,30.17,SSE,150,4.0,6.0,54,0.00,,CLR,0.00,0.00,VWS V14.00,2014-04-19 06:25:00,
2014-04-19 01:26:00,52.2,36.1,30.17,SSE,148,4.0,6.0,54,0.00,,CLR,0.00,0.00,VWS V14.00,2014-04-19 06:26:00,
2014-04-19 01:28:00,52.1,36.0,30.17,SSE,168,4.0,5.0,54,0.00,,CLR,0.00,0.00,VWS V14.00,2014-04-19 06:28:00,
2014-04-19 01:29:00,52.1,36.0,30.17,SSE,156,5.0,6.0,54,0.00,,CLR,0.00,0.00,VWS V14.00,2014-04-19 06:29:00,
2014-04-19 01:30:00,52.1,36.0,30.17,SSE,153,2.0,6.0,54,0.00,,CLR,0.00,0.00,VWS V14.00,2014-04-19 06:30:00,
2014-04-19 01:32:00,52.0,35.9,30.17,SE,146,6.0,7.0,54,0.00,,CLR,0.00,0.00,VWS V14.00,2014-04-19 06:32:00,
2014-04-19 01:33:00,51.9,35.8,30.17,SSE,149,4.0,4.0,54,0.00,,CLR,0.00,0.00,VWS V14.00,2014-04-19 06:33:00,
2014-04-19 01:34:00,51.9,35.8,30.17,SSE,154,5.0,5.0,54,0.00,,CLR,0.00,0.00,VWS V14.00,2014-04-19 06:34:00,
2014-04-19 01:35:00,51.8,35.7,30.17,SSE,153,5.0,6.0,54,0.00,,CLR,0.00,0.00,VWS V14.00,2014-04-19 06:35:00,
2014-04-19 01:37:00,51.7,36.1,30.17,SSE,159,2.0,6.0,55,0.00,,CLR,0.00,0.00,VWS V14.00,2014-04-19 06:37:00,
2014-04-19 01:39:00,51.7,36.1,30.17,South,175,2.0,6.0,55,0.00,,CLR,0.00,0.00,VWS V14.00,2014-04-19 06:39:00,
2014-04-19 01:40:00,51.6,36.0,30.17,SE,142,5.0,6.0,55,0.00,,CLR,0.00,0.00,VWS V14.00,2014-04-19 06:40:00,
2014-04-19 01:41:00,51.6,36.0,30.17,SE,145,2.0,6.0,55,0.00,,CLR,0.00,0.00,VWS V14.00,2014-04-19 06:41:00,
2014-04-19 01:42:00,51.5,35.9,30.17,SSE,152,4.0,6.0,55,0.00,,CLR,0.00,0.00,VWS V14.00,2014-04-19 06:42:00,
2014-04-19 01:44:00,51.4,36.2,30.17,SSE,154,5.0,5.0,56,0.00,,CLR,0.00,0.00,VWS V14.00,2014-04-19 06:44:00,
2014-04-19 01:45:00,51.3,36.2,30.17,South,182,0.0,5.0,56,0.00,,CLR,0.00,0.00,VWS V14.00,2014-04-19 06:45:00,
2014-04-19 01:46:00,51.3,36.2,30.17,SSE,157,4.0,6.0,56,0.00,,CLR,0.00,0.00,VWS V14.00,2014-04-19 06:46:00,
2014-04-19 01:48:00,51.2,36.1,30.17,SSE,158,4.0,5.0,56,0.00,,CLR,0.00,0.00,VWS V14.00,2014-04-19 06:48:00,
2014-04-19 01:49:00,51.2,36.1,30.17,SSE,158,4.0,5.0,56,0.00,,CLR,0.00,0.00,VWS V14.00,2014-04-19 06:49:00,
2014-04-19 01:50:00,51.1,36.0,30.17,SE,144,6.0,7.0,56,0.00,,CLR,0.00,0.00,VWS V14.00,2014-04-19 06:50:00,
2014-04-19 01:51:00,51.1,36.0,30.17,SE,146,2.0,7.0,56,0.00,,CLR,0.00,0.00,VWS V14.00,2014-04-19 06:51:00,
2014-04-19 01:53:00,51.1,36.4,30.17,SSE,148,4.0,4.0,57,0.00,,CLR,0.00,0.00,VWS V14.00,2014-04-19 06:53:00,
2014-04-19 01:54:00,51.0,36.3,30.17,SSE,152,5.0,6.0,57,0.00,,CLR,0.00,0.00,VWS V14.00,2014-04-19 06:54:00,
2014-04-19 01:56:00,51.0,36.3,30.17,SSE,151,4.0,6.0,57,0.00,,CLR,0.00,0.00,VWS V14.00,2014-04-19 06:56:00,
2014-04-19 01:58:00,50.9,36.2,30.17,SE,141,6.0,6.0,57,0.00,,CLR,0.00,0.00,VWS V14.00,2014-04-19 06:58:00,
2014-04-19 01:59:00,50.9,36.2,30.17,SSE,148,4.0,6.0,57,0.00,,CLR,0.00,0.00,VWS V14.00,2014-04-19 06:59:00,
2014-04-19 02:01:00,50.8,36.1,30.17,SE,142,5.0,6.0,57,0.00,,CLR,0.00,0.00,VWS V14.00,2014-04-19 07:01:00,
2014-04-19 02:02:00,50.8,36.1,30.17,SE,139,4.0,6.0,57,0.00,,CLR,0.00,0.00,VWS V14.00,2014-04-19 07:02:00,
2014-04-19 02:04:00,50.8,36.1,30.17,SE,145,4.0,5.0,57,0.00,,CLR,0.00,0.00,VWS V14.00,2014-04-19 07:04:00,
2014-04-19 02:06:00,50.7,36.0,30.17,SSE,159,4.0,6.0,57,0.00,,CLR,0.00,0.00,VWS V14.00,2014-04-19 07:06:00,
2014-04-19 02:07:00,50.6,35.9,30.17,SSE,159,4.0,6.0,57,0.00,,CLR,0.00,0.00,VWS V14.00,2014-04-19 07:07:00,
2014-04-19 02:08:00,50.6,35.9,30.17,SSE,159,4.0,4.0,57,0.00,,CLR,0.00,0.00,VWS V14.00,2014-04-19 07:08:00,
2014-04-19 02:09:00,50.6,35.9,30.17,SSE,148,4.0,5.0,57,0.00,,CLR,0.00,0.00,VWS V14.00,2014-04-19 07:09:00,
2014-04-19 02:10:00,50.5,35.8,30.17,SSE,148,5.0,5.0,57,0.00,,CLR,0.00,0.00,VWS V14.00,2014-04-19 07:10:00,
2014-04-19 02:12:00,50.5,35.8,30.17,SE,144,5.0,6.0,57,0.00,,CLR,0.00,0.00,VWS V14.00,2014-04-19 07:12:00,
2014-04-19 02:13:00,50.5,35.8,30.17,SSE,150,4.0,5.0,57,0.00,,CLR,0.00,0.00,VWS V14.00,2014-04-19 07:13:00,
2014-04-19 02:14:00,50.4,36.2,30.17,SSE,150,2.0,5.0,58,0.00,,CLR,0.00,0.00,VWS V14.00,2014-04-19 07:14:00,
2014-04-19 02:15:00,50.4,36.2,30.17,SSE,150,2.0,5.0,58,0.00,,CLR,0.00,0.00,VWS V14.00,2014-04-19 07:15:00,
2014-04-19 02:17:00,50.4,36.2,30.17,SSE,157,5.0,5.0,58,0.00,,CLR,0.00,0.00,VWS V14.00,2014-04-19 07:17:00,
2014-04-19 02:18:00,50.4,36.2,30.17,SSE,159,4.0,4.0,58,0.00,,CLR,0.00,0.00,VWS V14.00,2014-04-19 07:18:00,
2014-04-19 02:19:00,50.3,36.1,30.17,SSE,159,4.0,5.0,58,0.00,,CLR,0.00,0.00,VWS V14.00,2014-04-19 07:19:00,
2014-04-19 02:20:00,50.3,36.1,30.17,SSE,159,1.0,5.0,58,0.00,,CLR,0.00,0.00,VWS V14.00,2014-04-19 07:20:00,
2014-04-19 02:22:00,50.3,36.1,30.17,SE,144,0.0,6.0,58,0.00,,CLR,0.00,0.00,VWS V14.00,2014-04-19 07:22:00,
2014-04-19 02:23:00,50.3,36.1,30.17,SE,144,0.0,4.0,58,0.00,,CLR,0.00,0.00,VWS V14.00,2014-04-19 07:23:00,
2014-04-19 02:24:00,50.2,36.0,30.17,SE,144,2.0,4.0,58,0.00,,CLR,0.00,0.00,VWS V14.00,2014-04-19 07:24:00,
2014-04-19 02:25:00,50.2,36.0,30.17,SE,144,2.0,4.0,58,0.00,,CLR,0.00,0.00,VWS V14.00,2014-04-19 07:25:00,
2014-04-19 02:26:00,50.2,36.0,30.17,SE,144,2.0,5.0,58,0.00,,CLR,0.00,0.00,VWS V14.00,2014-04-19 07:26:00,
2014-04-19 02:27:00,50.1,35.9,30.16,SE,144,2.0,6.0,58,0.00,,CLR,0.00,0.00,VWS V14.00,2014-04-19 07:27:00,
2014-04-19 02:28:00,50.1,35.9,30.16,SE,144,4.0,4.0,58,0.00,,CLR,0.00,0.00,VWS V14.00,2014-04-19 07:28:00,
2014-04-19 02:30:00,50.0,35.8,30.16,SE,143,4.0,5.0,58,0.00,,CLR,0.00,0.00,VWS V14.00,2014-04-19 07:30:00,
2014-04-19 02:31:00,50.0,35.8,30.16,SE,144,5.0,6.0,58,0.00,,CLR,0.00,0.00,VWS V14.00,2014-04-19 07:31:00,
2014-04-19 02:33:00,50.0,35.8,30.16,SSE,148,4.0,6.0,58,0.00,,CLR,0.00,0.00,VWS V14.00,2014-04-19 07:33:00,
2014-04-19 02:35:00,50.0,35.8,30.16,SSE,154,5.0,6.0,58,0.00,,CLR,0.00,0.00,VWS V14.00,2014-04-19 07:35:00,
2014-04-19 02:36:00,50.1,35.9,30.16,SE,145,5.0,6.0,58,0.00,,CLR,0.00,0.00,VWS V14.00,2014-04-19 07:36:00,
2014-04-19 02:38:00,50.1,35.9,30.16,SE,144,5.0,5.0,58,0.00,,CLR,0.00,0.00,VWS V14.00,2014-04-19 07:38:00,
2014-04-19 02:39:00,50.1,35.9,30.16,SE,144,5.0,6.0,58,0.00,,CLR,0.00,0.00,VWS V14.00,2014-04-19 07:39:00,
2014-04-19 02:40:00,50.1,35.9,30.16,SE,144,5.0,6.0,58,0.00,,CLR,0.00,0.00,VWS V14.00,2014-04-19 07:40:00,
2014-04-19 02:41:00,50.1,35.9,30.16,SE,141,5.0,6.0,58,0.00,,CLR,0.00,0.00,VWS V14.00,2014-04-19 07:41:00,
2014-04-19 02:44:00,50.3,36.1,30.16,SSE,161,6.0,7.0,58,0.00,,CLR,0.00,0.00,VWS V14.00,2014-04-19 07:44:00,
2014-04-19 02:45:00,50.3,36.1,30.16,SE,138,6.0,7.0,58,0.00,,CLR,0.00,0.00,VWS V14.00,2014-04-19 07:45:00,
2014-04-19 02:46:00,50.3,36.1,30.16,SE,136,5.0,7.0,58,0.00,,CLR,0.00,0.00,VWS V14.00,2014-04-19 07:46:00,
2014-04-19 02:47:00,50.3,36.1,30.16,SE,141,5.0,7.0,58,0.00,,CLR,0.00,0.00,VWS V14.00,2014-04-19 07:47:00,
2014-04-19 02:49:00,50.3,36.1,30.16,SE,134,6.0,7.0,58,0.00,,CLR,0.00,0.00,VWS V14.00,2014-04-19 07:49:00,
2014-04-19 02:50:00,50.3,36.1,30.16,SE,144,5.0,7.0,58,0.00,,CLR,0.00,0.00,VWS V14.00,2014-04-19 07:50:00,
2014-04-19 02:51:00,50.3,36.1,30.16,SE,138,5.0,7.0,58,0.00,,CLR,0.00,0.00,VWS V14.00,2014-04-19 07:51:00,
2014-04-19 02:52:00,50.3,36.1,30.16,SE,143,5.0,7.0,58,0.00,,CLR,0.00,0.00,VWS V14.00,2014-04-19 07:52:00,
2014-04-19 02:54:00,50.3,36.1,30.16,SE,140,8.0,8.0,58,0.00,,CLR,0.00,0.00,VWS V14.00,2014-04-19 07:54:00,
2014-04-19 02:55:00,50.2,36.0,30.16,SE,138,5.0,8.0,58,0.00,,CLR,0.00,0.00,VWS V14.00,2014-04-19 07:55:00,
2014-04-19 02:57:00,50.3,36.1,30.16,SE,143,6.0,8.0,58,0.00,,CLR,0.00,0.00,VWS V14.00,2014-04-19 07:57:00,
2014-04-19 02:59:00,50.3,36.1,30.15,SE,136,6.0,8.0,58,0.00,,CLR,0.00,0.00,VWS V14.00,2014-04-19 07:59:00,
2014-04-19 03:00:00,50.3,36.1,30.15,SE,138,5.0,8.0,58,0.00,,CLR,0.00,0.00,VWS V14.00,2014-04-19 08:00:00,
2014-04-19 03:01:00,50.3,36.1,30.15,SE,136,6.0,8.0,58,0.00,,CLR,0.00,0.00,VWS V14.00,2014-04-19 08:01:00,
2014-04-19 03:02:00,50.3,36.1,30.15,SE,142,6.0,8.0,58,0.00,,CLR,0.00,0.00,VWS V14.00,2014-04-19 08:02:00,
2014-04-19 03:03:00,50.3,35.7,30.15,SE,141,5.0,7.0,57,0.00,,CLR,0.00,0.00,VWS V14.00,2014-04-19 08:03:00,
2014-04-19 03:04:00,50.3,35.7,30.15,SE,132,6.0,8.0,57,0.00,,CLR,0.00,0.00,VWS V14.00,2014-04-19 08:04:00,
2014-04-19 03:05:00,50.3,35.7,30.15,SE,139,6.0,8.0,57,0.00,,CLR,0.00,0.00,VWS V14.00,2014-04-19 08:05:00,
2014-04-19 03:06:00,50.4,35.8,30.15,SE,145,7.0,8.0,57,0.00,,CLR,0.00,0.00,VWS V14.00,2014-04-19 08:06:00,
2014-04-19 03:08:00,50.4,35.8,30.15,SE,144,6.0,8.0,57,0.00,,CLR,0.00,0.00,VWS V14.00,2014-04-19 08:08:00,
2014-04-19 03:09:00,50.3,35.7,30.15,SSE,150,6.0,6.0,57,0.00,,CLR,0.00,0.00,VWS V14.00,2014-04-19 08:09:00,
2014-04-19 03:10:00,50.3,35.7,30.15,SSE,157,5.0,6.0,57,0.00,,CLR,0.00,0.00,VWS V14.00,2014-04-19 08:10:00,
2014-04-19 03:11:00,50.3,35.7,30.15,SE,146,6.0,6.0,57,0.00,,CLR,0.00,0.00,VWS V14.00,2014-04-19 08:11:00,
2014-04-19 03:13:00,50.3,35.7,30.15,SSE,155,6.0,7.0,57,0.00,,CLR,0.00,0.00,VWS V14.00,2014-04-19 08:13:00,
2014-04-19 03:14:00,50.3,36.1,30.15,SE,144,4.0,8.0,58,0.00,,CLR,0.00,0.00,VWS V14.00,2014-04-19 08:14:00,
2014-04-19 03:16:00,50.3,36.1,30.15,SE,144,5.0,8.0,58,0.00,,CLR,0.00,0.00,VWS V14.00,2014-04-19 08:16:00,
2014-04-19 03:18:00,50.2,36.0,30.15,SE,140,5.0,6.0,58,0.00,,CLR,0.00,0.00,VWS V14.00,2014-04-19 08:18:00,
2014-04-19 03:20:00,50.1,35.9,30.15,SE,137,7.0,7.0,58,0.00,,CLR,0.00,0.00,VWS V14.00,2014-04-19 08:20:00,
2014-04-19 03:21:00,50.1,35.9,30.15,SE,143,5.0,7.0,58,0.00,,CLR,0.00,0.00,VWS V14.00,2014-04-19 08:21:00,
2014-04-19 03:23:00,50.1,35.9,30.15,SE,142,4.0,7.0,58,0.00,,CLR,0.00,0.00,VWS V14.00,2014-04-19 08:23:00,
2014-04-19 03:24:00,50.1,35.9,30.15,SE,138,5.0,7.0,58,0.00,,CLR,0.00,0.00,VWS V14.00,2014-04-19 08:24:00,
2014-04-19 03:25:00,50.1,35.9,30.15,SE,143,4.0,7.0,58,0.00,,CLR,0.00,0.00,VWS V14.00,2014-04-19 08:25:00,
2014-04-19 03:26:00,50.0,35.8,30.15,SE,137,7.0,7.0,58,0.00,,CLR,0.00,0.00,VWS V14.00,2014-04-19 08:26:00,
2014-04-19 03:27:00,50.0,35.8,30.15,SE,139,6.0,7.0,58,0.00,,CLR,0.00,0.00,VWS V14.00,2014-04-19 08:27:00,
2014-04-19 03:29:00,50.0,35.8,30.15,SE,136,6.0,7.0,58,0.00,,CLR,0.00,0.00,VWS V14.00,2014-04-19 08:29:00,
2014-04-19 03:30:00,49.9,35.7,30.15,SE,146,5.0,7.0,58,0.00,,CLR,0.00,0.00,VWS V14.00,2014-04-19 08:30:00,
2014-04-19 03:31:00,49.9,35.7,30.15,SE,145,6.0,7.0,58,0.00,,CLR,0.00,0.00,VWS V14.00,2014-04-19 08:31:00,
2014-04-19 03:32:00,49.9,35.7,30.15,SE,141,5.0,7.0,58,0.00,,CLR,0.00,0.00,VWS V14.00,2014-04-19 08:32:00,
2014-04-19 03:34:00,49.9,35.7,30.14,SE,140,6.0,7.0,58,0.00,,CLR,0.00,0.00,VWS V14.00,2014-04-19 08:34:00,
2014-04-19 03:35:00,49.9,35.7,30.15,SSE,158,6.0,8.0,58,0.00,,CLR,0.00,0.00,VWS V14.00,2014-04-19 08:35:00,
2014-04-19 03:36:00,49.9,35.7,30.14,SE,137,7.0,8.0,58,0.00,,CLR,0.00,0.00,VWS V14.00,2014-04-19 08:36:00,
2014-04-19 03:37:00,49.9,35.7,30.14,SE,136,7.0,8.0,58,0.00,,CLR,0.00,0.00,VWS V14.00,2014-04-19 08:37:00,
2014-04-19 03:39:00,49.9,35.7,30.14,SE,142,5.0,7.0,58,0.00,,CLR,0.00,0.00,VWS V14.00,2014-04-19 08:39:00,
2014-04-19 03:40:00,49.9,35.7,30.14,SE,127,5.0,7.0,58,0.00,,CLR,0.00,0.00,VWS V14.00,2014-04-19 08:40:00,
2014-04-19 03:41:00,49.8,35.6,30.14,SE,135,6.0,7.0,58,0.00,,CLR,0.00,0.00,VWS V14.00,2014-04-19 08:41:00,
2014-04-19 03:42:00,49.8,36.1,30.14,SE,142,7.0,8.0,59,0.00,,CLR,0.00,0.00,VWS V14.00,2014-04-19 08:42:00,
2014-04-19 03:44:00,49.7,36.0,30.14,SE,136,6.0,9.0,59,0.00,,CLR,0.00,0.00,VWS V14.00,2014-04-19 08:44:00,
2014-04-19 03:45:00,49.7,36.0,30.14,SSE,148,6.0,9.0,59,0.00,,CLR,0.00,0.00,VWS V14.00,2014-04-19 08:45:00,
2014-04-19 03:46:00,49.7,36.0,30.14,SE,138,5.0,9.0,59,0.00,,CLR,0.00,0.00,VWS V14.00,2014-04-19 08:46:00,
2014-04-19 03:47:00,49.7,36.0,30.14,SE,138,5.0,9.0,59,0.00,,CLR,0.00,0.00,VWS V14.00,2014-04-19 08:47:00,
2014-04-19 03:49:00,49.7,36.0,30.14,SSE,148,7.0,7.0,59,0.00,,CLR,0.00,0.00,VWS V14.00,2014-04-19 08:49:00,
2014-04-19 03:51:00,49.7,36.0,30.14,SE,134,5.0,7.0,59,0.00,,CLR,0.00,0.00,VWS V14.00,2014-04-19 08:51:00,
2014-04-19 03:52:00,49.7,36.0,30.14,SE,138,6.0,7.0,59,0.00,,CLR,0.00,0.00,VWS V14.00,2014-04-19 08:52:00,
2014-04-19 03:55:00,49.7,35.5,30.14,SSE,150,6.0,8.0,58,0.00,,CLR,0.00,0.00,VWS V14.00,2014-04-19 08:55:00,
2014-04-19 03:56:00,49.8,36.1,30.14,SSE,156,5.0,8.0,59,0.00,,CLR,0.00,0.00,VWS V14.00,2014-04-19 08:56:00,
2014-04-19 03:57:00,49.8,36.1,30.14,SE,140,7.0,8.0,59,0.00,,CLR,0.00,0.00,VWS V14.00,2014-04-19 08:57:00,
2014-04-19 04:00:00,49.7,36.0,30.14,SSE,147,5.0,7.0,59,0.00,,CLR,0.00,0.00,VWS V14.00,2014-04-19 09:00:00,
2014-04-19 04:02:00,49.7,36.0,30.14,SSE,154,6.0,7.0,59,0.00,,CLR,0.00,0.00,VWS V14.00,2014-04-19 09:02:00,
2014-04-19 04:03:00,49.6,35.9,30.14,SE,140,6.0,8.0,59,0.00,,CLR,0.00,0.00,VWS V14.00,2014-04-19 09:03:00,
2014-04-19 04:05:00,49.6,35.9,30.14,SSE,155,5.0,8.0,59,0.00,,CLR,0.00,0.00,VWS V14.00,2014-04-19 09:05:00,
2014-04-19 04:07:00,49.7,36.0,30.14,SSE,150,7.0,8.0,59,0.00,,CLR,0.00,0.00,VWS V14.00,2014-04-19 09:07:00,
2014-04-19 04:08:00,49.7,35.5,30.14,SE,143,5.0,8.0,58,0.00,,CLR,0.00,0.00,VWS V14.00,2014-04-19 09:08:00,
2014-04-19 04:10:00,49.7,36.0,30.14,SSE,148,5.0,8.0,59,0.00,,CLR,0.00,0.00,VWS V14.00,2014-04-19 09:10:00,
2014-04-19 04:12:00,49.7,35.5,30.14,SE,135,7.0,8.0,58,0.00,,CLR,0.00,0.00,VWS V14.00,2014-04-19 09:12:00,
2014-04-19 04:13:00,49.7,35.5,30.14,SE,138,7.0,8.0,58,0.00,,CLR,0.00,0.00,VWS V14.00,2014-04-19 09:13:00,
2014-04-19 04:15:00,49.7,35.5,30.14,SE,144,6.0,7.0,58,0.00,,CLR,0.00,0.00,VWS V14.00,2014-04-19 09:15:00,
2014-04-19 04:17:00,49.7,35.5,30.14,SE,142,5.0,8.0,58,0.00,,CLR,0.00,0.00,VWS V14.00,2014-04-19 09:17:00,
2014-04-19 04:18:00,49.7,35.5,30.14,SE,141,5.0,8.0,58,0.00,,CLR,0.00,0.00,VWS V14.00,2014-04-19 09:18:00,
2014-04-19 04:20:00,49.7,35.5,30.14,SE,142,5.0,7.0,58,0.00,,CLR,0.00,0.00,VWS V14.00,2014-04-19 09:20:00,
2014-04-19 04:22:00,49.6,35.5,30.14,SE,142,6.0,7.0,58,0.00,,CLR,0.00,0.00,VWS V14.00,2014-04-19 09:22:00,
2014-04-19 04:23:00,49.6,35.5,30.14,SE,142,5.0,7.0,58,0.00,,CLR,0.00,0.00,VWS V14.00,2014-04-19 09:23:00,
2014-04-19 04:24:00,49.7,35.5,30.15,SE,142,5.0,6.0,58,0.00,,CLR,0.00,0.00,VWS V14.00,2014-04-19 09:24:00,
2014-04-19 04:25:00,49.7,35.5,30.15,SE,144,5.0,6.0,58,0.00,,CLR,0.00,0.00,VWS V14.00,2014-04-19 09:25:00,
2014-04-19 04:26:00,49.7,35.5,30.14,SSE,150,5.0,6.0,58,0.00,,CLR,0.00,0.00,VWS V14.00,2014-04-19 09:26:00,
2014-04-19 04:28:00,49.7,35.5,30.14,SE,140,4.0,5.0,58,0.00,,CLR,0.00,0.00,VWS V14.00,2014-04-19 09:28:00,
2014-04-19 04:30:00,49.6,35.5,30.14,SE,134,4.0,5.0,58,0.00,,CLR,0.00,0.00,VWS V14.00,2014-04-19 09:30:00,
2014-04-19 04:31:00,49.6,35.5,30.14,SE,141,6.0,6.0,58,0.00,,CLR,0.00,0.00,VWS V14.00,2014-04-19 09:31:00,
2014-04-19 04:33:00,49.6,35.5,30.14,SE,136,5.0,7.0,58,0.00,,CLR,0.00,0.00,VWS V14.00,2014-04-19 09:33:00,
2014-04-19 04:34:00,49.6,35.5,30.14,SE,143,5.0,7.0,58,0.00,,CLR,0.00,0.00,VWS V14.00,2014-04-19 09:34:00,
2014-04-19 04:35:00,49.6,35.5,30.14,SE,132,5.0,7.0,58,0.00,,CLR,0.00,0.00,VWS V14.00,2014-04-19 09:35:00,
2014-04-19 04:36:00,49.5,35.3,30.14,SE,133,4.0,7.0,58,0.00,,CLR,0.00,0.00,VWS V14.00,2014-04-19 09:36:00,
2014-04-19 04:37:00,49.5,35.3,30.14,SE,146,6.0,7.0,58,0.00,,CLR,0.00,0.00,VWS V14.00,2014-04-19 09:37:00,
2014-04-19 04:38:00,49.5,35.3,30.14,SE,146,4.0,5.0,58,0.00,,CLR,0.00,0.00,VWS V14.00,2014-04-19 09:38:00,
2014-04-19 04:39:00,49.4,35.3,30.14,SE,146,4.0,5.0,58,0.00,,CLR,0.00,0.00,VWS V14.00,2014-04-19 09:39:00,
2014-04-19 04:40:00,49.3,35.6,30.14,SE,146,2.0,5.0,59,0.00,,CLR,0.00,0.00,VWS V14.00,2014-04-19 09:40:00,
2014-04-19 04:41:00,49.2,35.5,30.14,SE,145,4.0,5.0,59,0.00,,CLR,0.00,0.00,VWS V14.00,2014-04-19 09:41:00,
2014-04-19 04:42:00,49.0,35.3,30.14,SE,144,4.0,5.0,59,0.00,,CLR,0.00,0.00,VWS V14.00,2014-04-19 09:42:00,
2014-04-19 04:43:00,48.9,35.2,30.14,SE,141,4.0,5.0,59,0.00,,CLR,0.00,0.00,VWS V14.00,2014-04-19 09:43:00,
2014-04-19 04:44:00,48.8,35.1,30.14,SSE,160,4.0,5.0,59,0.00,,CLR,0.00,0.00,VWS V14.00,2014-04-19 09:44:00,
2014-04-19 04:45:00,48.7,35.0,30.14,SE,130,5.0,7.0,59,0.00,,CLR,0.00,0.00,VWS V14.00,2014-04-19 09:45:00,
2014-04-19 04:46:00,48.6,34.9,30.14,SE,130,2.0,7.0,59,0.00,,CLR,0.00,0.00,VWS V14.00,2014-04-19 09:46:00,
2014-04-19 04:47:00,48.5,35.3,30.15,SE,130,2.0,7.0,60,0.00,,CLR,0.00,0.00,VWS V14.00,2014-04-19 09:47:00,
2014-04-19 04:49:00,48.3,35.1,30.15,SE,130,2.0,5.0,60,0.00,,CLR,0.00,0.00,VWS V14.00,2014-04-19 09:49:00,
2014-04-19 04:51:00,48.1,34.9,30.15,SE,128,5.0,7.0,60,0.00,,CLR,0.00,0.00,VWS V14.00,2014-04-19 09:51:00,
2014-04-19 04:52:00,48.1,34.9,30.15,SE,130,2.0,7.0,60,0.00,,CLR,0.00,0.00,VWS V14.00,2014-04-19 09:52:00,
2014-04-19 04:54:00,47.9,35.1,30.15,SE,130,0.0,5.0,61,0.00,,CLR,0.00,0.00,VWS V14.00,2014-04-19 09:54:00,
2014-04-19 04:56:00,47.8,35.0,30.15,SE,130,4.0,5.0,61,0.00,,CLR,0.00,0.00,VWS V14.00,2014-04-19 09:56:00,
2014-04-19 04:57:00,47.6,34.8,30.15,SE,130,0.0,5.0,61,0.00,,CLR,0.00,0.00,VWS V14.00,2014-04-19 09:57:00,
2014-04-19 04:59:00,47.5,35.1,30.15,ESE,123,1.0,5.0,62,0.00,,CLR,0.00,0.00,VWS V14.00,2014-04-19 09:59:00,
2014-04-19 05:01:00,47.2,34.9,30.15,ESE,123,1.0,5.0,62,0.00,,CLR,0.00,0.00,VWS V14.00,2014-04-19 10:01:00,
2014-04-19 05:02:00,47.2,34.9,30.15,SE,124,4.0,5.0,62,0.00,,CLR,0.00,0.00,VWS V14.00,2014-04-19 10:02:00,
2014-04-19 05:03:00,47.0,35.1,30.15,SE,134,5.0,5.0,63,0.00,,CLR,0.00,0.00,VWS V14.00,2014-04-19 10:03:00,
2014-04-19 05:04:00,46.9,35.0,30.15,SE,134,2.0,5.0,63,0.00,,CLR,0.00,0.00,VWS V14.00,2014-04-19 10:04:00,
2014-04-19 05:07:00,46.6,35.1,30.15,SE,134,1.0,5.0,64,0.00,,CLR,0.00,0.00,VWS V14.00,2014-04-19 10:07:00,
2014-04-19 05:08:00,46.5,35.0,30.15,SE,134,2.0,2.0,64,0.00,,CLR,0.00,0.00,VWS V14.00,2014-04-19 10:08:00,
2014-04-19 05:09:00,46.4,34.9,30.15,SE,134,1.0,2.0,64,0.00,,CLR,0.00,0.00,VWS V14.00,2014-04-19 10:09:00,
2014-04-19 05:10:00,46.3,34.8,30.15,SE,134,2.0,2.0,64,0.00,,CLR,0.00,0.00,VWS V14.00,2014-04-19 10:10:00,
2014-04-19 05:12:00,46.1,35.0,30.15,SE,134,2.0,2.0,65,0.00,,CLR,0.00,0.00,VWS V14.00,2014-04-19 10:12:00,
2014-04-19 05:13:00,46.0,34.9,30.15,SE,134,0.0,2.0,65,0.00,,CLR,0.00,0.00,VWS V14.00,2014-04-19 10:13:00,
2014-04-19 05:14:00,45.9,34.8,30.16,SE,134,2.0,2.0,65,0.00,,CLR,0.00,0.00,VWS V14.00,2014-04-19 10:14:00,
2014-04-19 05:15:00,45.8,34.7,30.15,ESE,104,2.0,6.0,65,0.00,,CLR,0.00,0.00,VWS V14.00,2014-04-19 10:15:00,
2014-04-19 05:17:00,45.6,34.5,30.15,ESE,109,1.0,6.0,65,0.00,,CLR,0.00,0.00,VWS V14.00,2014-04-19 10:17:00,
2014-04-19 05:18:00,45.6,34.9,30.15,ESE,109,1.0,6.0,66,0.00,,CLR,0.00,0.00,VWS V14.00,2014-04-19 10:18:00,
2014-04-19 05:19:00,45.5,34.8,30.15,ESE,109,1.0,2.0,66,0.00,,CLR,0.00,0.00,VWS V14.00,2014-04-19 10:19:00,
2014-04-19 05:20:00,45.4,34.7,30.15,ESE,109,1.0,2.0,66,0.00,,CLR,0.00,0.00,VWS V14.00,2014-04-19 10:20:00,
2014-04-19 05:21:00,45.3,34.6,30.15,ESE,109,2.0,4.0,66,0.00,,CLR,0.00,0.00,VWS V14.00,2014-04-19 10:21:00,
2014-04-19 05:23:00,45.2,34.5,30.15,ESE,109,1.0,5.0,66,0.00,,CLR,0.00,0.00,VWS V14.00,2014-04-19 10:23:00,
2014-04-19 05:24:00,45.2,34.5,30.16,ESE,109,1.0,4.0,66,0.00,,CLR,0.00,0.00,VWS V14.00,2014-04-19 10:24:00,
2014-04-19 05:25:00,45.1,34.4,30.15,ESE,109,1.0,4.0,66,0.00,,CLR,0.00,0.00,VWS V14.00,2014-04-19 10:25:00,
2014-04-19 05:27:00,44.7,34.4,30.15,ESE,109,4.0,5.0,67,0.00,,CLR,0.00,0.00,VWS V14.00,2014-04-19 10:27:00,
2014-04-19 05:28:00,44.6,34.3,30.15,ESE,109,2.0,5.0,67,0.00,,CLR,0.00,0.00,VWS V14.00,2014-04-19 10:28:00,
2014-04-19 05:29:00,44.3,34.0,30.15,ESE,109,1.0,4.0,67,0.00,,CLR,0.00,0.00,VWS V14.00,2014-04-19 10:29:00,
2014-04-19 05:30:00,44.0,34.1,30.15,ESE,109,2.0,4.0,68,0.00,,CLR,0.00,0.00,VWS V14.00,2014-04-19 10:30:00,
2014-04-19 05:31:00,44.0,34.1,30.15,ESE,109,4.0,4.0,68,0.00,,CLR,0.00,0.00,VWS V14.00,2014-04-19 10:31:00,
2014-04-19 05:32:00,43.6,34.1,30.15,ESE,115,4.0,5.0,69,0.00,,CLR,0.00,0.00,VWS V14.00,2014-04-19 10:32:00,
2014-04-19 05:33:00,43.6,34.1,30.15,ESE,115,4.0,5.0,69,0.00,,CLR,0.00,0.00,VWS V14.00,2014-04-19 10:33:00,
2014-04-19 05:34:00,43.4,33.9,30.15,ESE,115,2.0,4.0,69,0.00,,CLR,0.00,0.00,VWS V14.00,2014-04-19 10:34:00,
2014-04-19 05:35:00,43.3,34.2,30.15,ESE,115,2.0,4.0,70,0.00,,CLR,0.00,0.00,VWS V14.00,2014-04-19 10:35:00,
2014-04-19 05:36:00,43.2,34.1,30.15,ESE,115,2.0,4.0,70,0.00,,CLR,0.00,0.00,VWS V14.00,2014-04-19 10:36:00,
2014-04-19 05:38:00,43.0,33.9,30.15,ESE,115,2.0,4.0,70,0.00,,CLR,0.00,0.00,VWS V14.00,2014-04-19 10:38:00,
2014-04-19 05:39:00,42.8,34.1,30.15,ESE,115,1.0,4.0,71,0.00,,CLR,0.00,0.00,VWS V14.00,2014-04-19 10:39:00,
2014-04-19 05:40:00,42.8,34.1,30.15,ESE,115,4.0,4.0,71,0.00,,CLR,0.00,0.00,VWS V14.00,2014-04-19 10:40:00,
2014-04-19 05:41:00,42.7,34.0,30.15,SE,125,5.0,5.0,71,0.00,,CLR,0.00,0.00,VWS V14.00,2014-04-19 10:41:00,
2014-04-19 05:43:00,42.8,34.1,30.15,SE,126,4.0,4.0,71,0.00,,CLR,0.00,0.00,VWS V14.00,2014-04-19 10:43:00,
2014-04-19 05:45:00,42.9,34.2,30.15,SE,126,4.0,4.0,71,0.00,,CLR,0.00,0.00,VWS V14.00,2014-04-19 10:45:00,
2014-04-19 05:46:00,42.9,34.2,30.15,SE,127,5.0,5.0,71,0.00,,CLR,0.00,0.00,VWS V14.00,2014-04-19 10:46:00,
2014-04-19 05:48:00,43.2,34.1,30.15,SE,126,2.0,5.0,70,0.00,,CLR,0.00,0.00,VWS V14.00,2014-04-19 10:48:00,
2014-04-19 05:51:00,43.4,34.3,30.15,ESE,105,1.0,7.0,70,0.00,,CLR,0.00,0.00,VWS V14.00,2014-04-19 10:51:00,
2014-04-19 05:53:00,43.6,34.1,30.15,ESE,122,4.0,6.0,69,0.00,,CLR,0.00,0.00,VWS V14.00,2014-04-19 10:53:00,
2014-04-19 05:54:00,43.7,34.2,30.15,ESE,121,4.0,6.0,69,0.00,,CLR,0.00,0.00,VWS V14.00,2014-04-19 10:54:00,
2014-04-19 05:56:00,43.8,34.3,30.15,SE,125,5.0,7.0,69,0.00,,CLR,0.00,0.00,VWS V14.00,2014-04-19 10:56:00,
2014-04-19 05:57:00,43.8,34.3,30.15,SE,126,4.0,7.0,69,0.00,,CLR,0.00,0.00,VWS V14.00,2014-04-19 10:57:00,
2014-04-19 05:58:00,43.9,34.4,30.14,SE,125,2.0,4.0,69,0.00,,CLR,0.00,0.00,VWS V14.00,2014-04-19 10:58:00,
2014-04-19 05:59:00,43.9,34.0,30.15,SE,125,4.0,6.0,68,0.00,,CLR,0.00,0.00,VWS V14.00,2014-04-19 10:59:00,
2014-04-19 06:01:00,43.9,34.0,30.15,ESE,104,4.0,6.0,68,0.00,,CLR,0.00,0.00,VWS V14.00,2014-04-19 11:01:00,
2014-04-19 06:03:00,43.9,34.0,30.15,ESE,105,4.0,4.0,68,0.00,,CLR,0.00,0.00,VWS V14.00,2014-04-19 11:03:00,
2014-04-19 06:04:00,43.8,33.9,30.15,ESE,116,4.0,6.0,68,0.00,,CLR,0.00,0.00,VWS V14.00,2014-04-19 11:04:00,
2014-04-19 06:07:00,43.8,33.9,30.15,ESE,123,4.0,6.0,68,0.00,,CLR,0.00,0.00,VWS V14.00,2014-04-19 11:07:00,
2014-04-19 06:08:00,43.7,33.8,30.15,ESE,108,4.0,5.0,68,0.00,,CLR,0.00,0.00,VWS V14.00,2014-04-19 11:08:00,
2014-04-19 06:09:00,43.6,34.1,30.15,ESE,113,4.0,5.0,69,0.00,,CLR,0.00,0.00,VWS V14.00,2014-04-19 11:09:00,
2014-04-19 06:10:00,43.6,34.1,30.15,ESE,110,5.0,6.0,69,0.00,,CLR,0.00,0.00,VWS V14.00,2014-04-19 11:10:00,
2014-04-19 06:12:00,43.5,34.0,30.15,ESE,121,4.0,6.0,69,0.00,,CLR,0.00,0.00,VWS V14.00,2014-04-19 11:12:00,
2014-04-19 06:14:00,43.4,33.9,30.15,ESE,123,4.0,6.0,69,0.00,,CLR,0.00,0.00,VWS V14.00,2014-04-19 11:14:00,
2014-04-19 06:15:00,43.3,33.8,30.15,ESE,118,4.0,6.0,69,0.00,,CLR,0.00,0.00,VWS V14.00,2014-04-19 11:15:00,
2014-04-19 06:17:00,43.3,33.8,30.15,ESE,105,4.0,6.0,69,0.00,,CLR,0.00,0.00,VWS V14.00,2014-04-19 11:17:00,
2014-04-19 06:19:00,43.2,33.7,30.15,ESE,107,4.0,7.0,69,0.00,,CLR,0.00,0.00,VWS V14.00,2014-04-19 11:19:00,
2014-04-19 06:20:00,43.2,34.1,30.15,ESE,120,2.0,7.0,70,0.00,,CLR,0.00,0.00,VWS V14.00,2014-04-19 11:20:00,
2014-04-19 06:22:00,43.1,34.0,30.15,ESE,119,4.0,7.0,70,0.00,,CLR,0.00,0.00,VWS V14.00,2014-04-19 11:22:00,
2014-04-19 06:24:00,43.0,33.9,30.16,ESE,122,6.0,6.0,70,0.00,,CLR,0.00,0.00,VWS V14.00,2014-04-19 11:24:00,
2014-04-19 06:25:00,42.9,33.8,30.16,SE,125,4.0,6.0,70,0.00,,CLR,0.00,0.00,VWS V14.00,2014-04-19 11:25:00,
2014-04-19 06:26:00,42.9,33.8,30.16,ESE,110,5.0,6.0,70,0.00,,CLR,0.00,0.00,VWS V14.00,2014-04-19 11:26:00,
2014-04-19 06:27:00,42.8,34.1,30.16,ESE,109,2.0,6.0,71,0.00,,CLR,0.00,0.00,VWS V14.00,2014-04-19 11:27:00,
2014-04-19 06:29:00,42.8,34.1,30.16,ESE,111,4.0,5.0,71,0.00,,CLR,0.00,0.00,VWS V14.00,2014-04-19 11:29:00,
2014-04-19 06:30:00,42.7,34.0,30.16,ESE,119,4.0,6.0,71,0.00,,CLR,0.00,5.00,VWS V14.00,2014-04-19 11:30:00,
2014-04-19 06:31:00,42.7,34.0,30.16,ENE,78,6.0,6.0,71,0.00,,CLR,0.00,5.00,VWS V14.00,2014-04-19 11:31:00,
2014-04-19 06:32:00,42.7,34.0,30.16,East,98,5.0,6.0,71,0.00,,CLR,0.00,7.00,VWS V14.00,2014-04-19 11:32:00,
2014-04-19 06:33:00,42.7,34.0,30.16,East,98,2.0,6.0,71,0.00,,CLR,0.00,7.00,VWS V14.00,2014-04-19 11:33:00,
2014-04-19 06:34:00,42.7,34.0,30.16,East,95,5.0,6.0,71,0.00,,CLR,0.00,9.00,VWS V14.00,2014-04-19 11:34:00,
2014-04-19 06:35:00,42.7,34.0,30.16,East,92,2.0,6.0,71,0.00,,CLR,0.00,11.00,VWS V14.00,2014-04-19 11:35:00,
2014-04-19 06:36:00,42.7,34.0,30.16,East,92,1.0,6.0,71,0.00,,CLR,0.00,12.00,VWS V14.00,2014-04-19 11:36:00,
2014-04-19 06:38:00,42.6,33.9,30.16,East,92,2.0,6.0,71,0.00,,CLR,0.00,12.00,VWS V14.00,2014-04-19 11:38:00,
2014-04-19 06:39:00,42.6,33.9,30.16,East,90,2.0,5.0,71,0.00,,CLR,0.00,14.00,VWS V14.00,2014-04-19 11:39:00,
2014-04-19 06:40:00,42.6,34.2,30.16,East,90,0.0,5.0,72,0.00,,CLR,0.00,16.00,VWS V14.00,2014-04-19 11:40:00,
2014-04-19 06:41:00,42.6,34.2,30.16,East,90,2.0,5.0,72,0.00,,CLR,0.00,16.00,VWS V14.00,2014-04-19 11:41:00,
2014-04-19 06:43:00,42.5,34.1,30.16,East,90,0.0,0.0,72,0.00,,CLR,0.00,18.00,VWS V14.00,2014-04-19 11:43:00,
2014-04-19 06:44:00,42.5,34.1,30.16,East,90,5.0,7.0,72,0.00,,CLR,0.00,18.00,VWS V14.00,2014-04-19 11:44:00,
2014-04-19 06:45:00,42.5,34.1,30.16,East,93,2.0,7.0,72,0.00,,CLR,0.00,19.00,VWS V14.00,2014-04-19 11:45:00,
2014-04-19 06:46:00,42.4,34.0,30.16,ESE,103,0.0,7.0,72,0.00,,CLR,0.00,19.00,VWS V14.00,2014-04-19 11:46:00,
2014-04-19 06:48:00,42.4,34.0,30.16,ESE,102,5.0,7.0,72,0.00,,CLR,0.00,21.00,VWS V14.00,2014-04-19 11:48:00,
2014-04-19 06:49:00,42.3,34.3,30.16,ENE,62,3.0,6.0,73,0.00,,CLR,0.00,23.00,VWS V14.00,2014-04-19 11:49:00,
2014-04-19 06:51:00,42.2,34.2,30.16,East,88,3.0,6.0,73,0.00,,CLR,0.00,25.00,VWS V14.00,2014-04-19 11:51:00,
2014-04-19 06:52:00,42.2,34.2,30.16,East,88,3.0,6.0,73,0.00,,CLR,0.00,25.00,VWS V14.00,2014-04-19 11:52:00,
2014-04-19 06:54:00,42.2,34.2,30.17,ESE,117,4.0,5.0,73,0.00,,CLR,0.00,30.00,VWS V14.00,2014-04-19 11:54:00,
2014-04-19 06:56:00,42.2,34.2,30.17,ESE,119,5.0,6.0,73,0.00,,CLR,0.00,33.00,VWS V14.00,2014-04-19 11:56:00,
2014-04-19 06:57:00,42.2,34.2,30.17,ESE,115,5.0,6.0,73,0.00,,CLR,0.00,39.00,VWS V14.00,2014-04-19 11:57:00,
2014-04-19 06:59:00,42.3,33.9,30.17,ESE,105,2.0,7.0,72,0.00,,CLR,0.00,46.00,VWS V14.00,2014-04-19 11:59:00,
2014-04-19 07:01:00,42.4,34.0,30.17,ESE,112,6.0,8.0,72,0.00,,CLR,0.00,51.00,VWS V14.00,2014-04-19 12:01:00,
2014-04-19 07:02:00,42.5,34.1,30.17,SSE,150,2.0,8.0,72,0.00,,CLR,0.00,56.00,VWS V14.00,2014-04-19 12:02:00,
2014-04-19 07:03:00,42.6,34.2,30.17,ESE,116,5.0,8.0,72,0.00,,CLR,0.00,56.00,VWS V14.00,2014-04-19 12:03:00,
2014-04-19 07:04:00,42.7,34.0,30.17,ESE,111,7.0,8.0,71,0.00,,CLR,0.00,60.00,VWS V14.00,2014-04-19 12:04:00,
2014-04-19 07:06:00,42.9,34.2,30.17,ESE,110,2.0,8.0,71,0.00,,CLR,0.00,65.00,VWS V14.00,2014-04-19 12:06:00,
2014-04-19 07:07:00,43.1,34.0,30.17,ESE,123,4.0,8.0,70,0.00,,CLR,0.00,72.00,VWS V14.00,2014-04-19 12:07:00,
2014-04-19 07:08:00,43.1,34.0,30.17,ESE,114,2.0,5.0,70,0.00,,CLR,0.00,72.00,VWS V14.00,2014-04-19 12:08:00,
2014-04-19 07:09:00,43.3,34.2,30.17,SE,130,4.0,6.0,70,0.00,,CLR,0.00,77.00,VWS V14.00,2014-04-19 12:09:00,
2014-04-19 07:10:00,43.3,34.2,30.17,ESE,116,4.0,7.0,70,0.00,,CLR,0.00,81.00,VWS V14.00,2014-04-19 12:10:00,
2014-04-19 07:11:00,43.4,34.3,30.17,ESE,123,2.0,7.0,70,0.00,,CLR,0.00,83.00,VWS V14.00,2014-04-19 12:11:00,
2014-04-19 07:13:00,43.6,34.1,30.17,SE,130,5.0,5.0,69,0.00,,CLR,0.00,86.00,VWS V14.00,2014-04-19 12:13:00,
2014-04-19 07:14:00,43.8,34.3,30.17,SE,126,4.0,7.0,69,0.00,,CLR,0.00,86.00,VWS V14.00,2014-04-19 12:14:00,
2014-04-19 07:16:00,43.9,34.4,30.17,SE,129,5.0,7.0,69,0.00,,CLR,0.00,90.00,VWS V14.00,2014-04-19 12:16:00,
2014-04-19 07:18:00,44.1,34.2,30.16,SE,126,5.0,6.0,68,0.00,,CLR,0.00,90.00,VWS V14.00,2014-04-19 12:18:00,
2014-04-19 07:19:00,44.1,34.2,30.16,ESE,115,6.0,7.0,68,0.00,,CLR,0.00,91.00,VWS V14.00,2014-04-19 12:19:00,
2014-04-19 07:21:00,44.2,34.3,30.16,ESE,109,7.0,7.0,68,0.00,,CLR,0.00,98.00,VWS V14.00,2014-04-19 12:21:00,
2014-04-19 07:22:00,44.3,34.4,30.16,SE,130,6.0,8.0,68,0.00,,CLR,0.00,88.00,VWS V14.00,2014-04-19 12:22:00,
2014-04-19 07:23:00,44.3,34.4,30.16,ESE,120,5.0,6.0,68,0.00,,CLR,0.00,70.00,VWS V14.00,2014-04-19 12:23:00,
2014-04-19 07:24:00,44.3,34.0,30.16,SE,127,6.0,7.0,67,0.00,,CLR,0.00,70.00,VWS V14.00,2014-04-19 12:24:00,
2014-04-19 07:25:00,44.3,34.0,30.16,ESE,103,5.0,7.0,67,0.00,,CLR,0.00,70.00,VWS V14.00,2014-04-19 12:25:00,
2014-04-19 07:26:00,44.3,34.0,30.16,ESE,119,5.0,9.0,67,0.00,,CLR,0.00,69.00,VWS V14.00,2014-04-19 12:26:00,
2014-04-19 07:27:00,44.3,34.0,30.16,ESE,121,4.0,9.0,67,0.00,,CLR,0.00,72.00,VWS V14.00,2014-04-19 12:27:00,
2014-04-19 07:28:00,44.3,34.0,30.16,ESE,120,5.0,5.0,67,0.00,,CLR,0.00,76.00,VWS V14.00,2014-04-19 12:28:00,
2014-04-19 07:29:00,44.3,34.0,30.16,SE,131,5.0,8.0,67,0.00,,CLR,0.00,83.00,VWS V14.00,2014-04-19 12:29:00,
2014-04-19 07:30:00,44.3,34.0,30.16,SE,130,4.0,8.0,67,0.00,,CLR,0.00,83.00,VWS V14.00,2014-04-19 12:30:00,
2014-04-19 07:32:00,44.4,34.1,30.16,ESE,123,6.0,8.0,67,0.00,,CLR,0.00,97.00,VWS V14.00,2014-04-19 12:32:00,
2014-04-19 07:33:00,44.4,34.1,30.16,SE,128,6.0,9.0,67,0.00,,CLR,0.00,109.00,VWS V14.00,2014-04-19 12:33:00,
2014-04-19 07:34:00,44.5,34.6,30.16,East,98,5.0,9.0,68,0.00,,CLR,0.00,130.00,VWS V14.00,2014-04-19 12:34:00,
2014-04-19 07:35:00,44.5,34.2,30.16,SE,140,7.0,9.0,67,0.00,,CLR,0.00,130.00,VWS V14.00,2014-04-19 12:35:00,
2014-04-19 07:37:00,44.7,34.4,30.16,ESE,107,8.0,11.0,67,0.00,,CLR,0.00,151.00,VWS V14.00,2014-04-19 12:37:00,
2014-04-19 07:38:00,44.7,34.4,30.16,ESE,121,11.0,11.0,67,0.00,,CLR,0.00,162.00,VWS V14.00,2014-04-19 12:38:00,
2014-04-19 07:39:00,44.9,34.6,30.16,ESE,120,7.0,11.0,67,0.00,,CLR,0.00,165.00,VWS V14.00,2014-04-19 12:39:00,
2014-04-19 07:40:00,45.0,34.3,30.16,ESE,115,8.0,11.0,66,0.00,,CLR,0.00,160.00,VWS V14.00,2014-04-19 12:40:00,
2014-04-19 07:43:00,45.2,34.5,30.16,SE,130,5.0,5.0,66,0.00,,CLR,0.00,156.00,VWS V14.00,2014-04-19 12:43:00,
2014-04-19 07:44:00,45.3,34.6,30.16,SE,145,9.0,10.0,66,0.00,,CLR,0.00,158.00,VWS V14.00,2014-04-19 12:44:00,
2014-04-19 07:45:00,45.4,34.3,30.16,ESE,119,6.0,10.0,65,0.00,,CLR,0.00,149.00,VWS V14.00,2014-04-19 12:45:00,
2014-04-19 07:46:00,45.5,34.4,30.16,ESE,110,4.0,10.0,65,0.00,,CLR,0.00,155.00,VWS V14.00,2014-04-19 12:46:00,
2014-04-19 07:48:00,45.7,34.6,30.16,SE,133,5.0,7.0,65,0.00,,CLR,0.00,149.00,VWS V14.00,2014-04-19 12:48:00,
2014-04-19 07:49:00,45.7,34.6,30.16,SE,138,6.0,9.0,65,0.00,,CLR,0.00,137.00,VWS V14.00,2014-04-19 12:49:00,
2014-04-19 07:50:00,45.8,34.7,30.17,SE,125,6.0,11.0,65,0.00,,CLR,0.00,95.00,VWS V14.00,2014-04-19 12:50:00,
2014-04-19 07:51:00,45.8,34.7,30.16,SE,131,6.0,11.0,65,0.00,,CLR,0.00,100.00,VWS V14.00,2014-04-19 12:51:00,
2014-04-19 07:53:00,45.9,34.8,30.16,ESE,122,7.0,7.0,65,0.00,,CLR,0.00,121.00,VWS V14.00,2014-04-19 12:53:00,
2014-04-19 07:54:00,45.9,34.8,30.17,ESE,120,5.0,8.0,65,0.00,,CLR,0.00,127.00,VWS V14.00,2014-04-19 12:54:00,
2014-04-19 07:55:00,46.0,34.9,30.17,ENE,74,5.0,11.0,65,0.00,,CLR,0.00,149.00,VWS V14.00,2014-04-19 12:55:00,
2014-04-19 07:56:00,46.0,34.9,30.17,ESE,115,6.0,11.0,65,0.00,,CLR,0.00,132.00,VWS V14.00,2014-04-19 12:56:00,
2014-04-19 07:58:00,46.1,35.0,30.17,SE,129,6.0,6.0,65,0.00,,CLR,0.00,132.00,VWS V14.00,2014-04-19 12:58:00,
2014-04-19 07:59:00,46.2,35.1,30.17,ESE,117,5.0,6.0,65,0.00,,CLR,0.00,172.00,VWS V14.00,2014-04-19 12:59:00,
2014-04-19 08:00:00,46.3,35.2,30.17,ESE,114,5.0,7.0,65,0.00,,CLR,0.00,190.00,VWS V14.00,2014-04-19 13:00:00,
2014-04-19 08:01:00,46.4,35.3,30.17,SE,132,4.0,7.0,65,0.00,,CLR,0.00,192.00,VWS V14.00,2014-04-19 13:01:00,
2014-04-19 08:03:00,46.6,35.1,30.17,ESE,119,9.0,9.0,64,0.00,,CLR,0.00,202.00,VWS V14.00,2014-04-19 13:03:00,
2014-04-19 08:04:00,46.7,35.2,30.17,ESE,115,6.0,9.0,64,0.00,,CLR,0.00,218.00,VWS V14.00,2014-04-19 13:04:00,
2014-04-19 08:05:00,46.8,35.7,30.17,ESE,121,5.0,9.0,65,0.00,,CLR,0.00,234.00,VWS V14.00,2014-04-19 13:05:00,
2014-04-19 08:06:00,46.9,35.4,30.17,ESE,113,5.0,9.0,64,0.00,,CLR,0.00,248.00,VWS V14.00,2014-04-19 13:06:00,
2014-04-19 08:08:00,47.2,35.7,30.17,ESE,123,4.0,4.0,64,0.00,,CLR,0.00,251.00,VWS V14.00,2014-04-19 13:08:00,
2014-04-19 08:09:00,47.3,35.8,30.17,SE,140,6.0,6.0,64,0.00,,CLR,0.00,253.00,VWS V14.00,2014-04-19 13:09:00,
2014-04-19 08:10:00,47.5,35.9,30.17,SE,126,7.0,9.0,64,0.00,,CLR,0.00,250.00,VWS V14.00,2014-04-19 13:10:00,
2014-04-19 08:11:00,47.4,35.8,30.17,SE,139,5.0,9.0,64,0.00,,CLR,0.00,250.00,VWS V14.00,2014-04-19 13:11:00,
2014-04-19 08:13:00,47.8,35.8,30.17,SE,128,7.0,11.0,63,0.00,,CLR,0.00,244.00,VWS V14.00,2014-04-19 13:13:00,
2014-04-19 08:14:00,47.8,35.4,30.17,ESE,120,7.0,11.0,62,0.00,,CLR,0.00,264.00,VWS V14.00,2014-04-19 13:14:00,
2014-04-19 08:16:00,48.0,35.6,30.17,SE,146,7.0,11.0,62,0.00,,CLR,0.00,267.00,VWS V14.00,2014-04-19 13:16:00,
2014-04-19 08:17:00,48.1,35.7,30.17,ESE,109,9.0,12.0,62,0.00,,CLR,0.00,278.00,VWS V14.00,2014-04-19 13:17:00,
2014-04-19 08:18:00,48.3,35.9,30.17,ESE,120,6.0,6.0,62,0.00,,CLR,0.00,288.00,VWS V14.00,2014-04-19 13:18:00,
2014-04-19 08:19:00,48.4,36.0,30.17,ESE,109,6.0,8.0,62,0.00,,CLR,0.00,290.00,VWS V14.00,2014-04-19 13:19:00,
2014-04-19 08:21:00,48.5,36.1,30.17,ESE,105,7.0,8.0,62,0.00,,CLR,0.00,301.00,VWS V14.00,2014-04-19 13:21:00,
2014-04-19 08:22:00,48.7,36.3,30.17,SE,128,2.0,9.0,62,0.00,,CLR,0.00,304.00,VWS V14.00,2014-04-19 13:22:00,
2014-04-19 08:23:00,48.9,36.5,30.17,SE,126,6.0,8.0,62,0.00,,CLR,0.00,309.00,VWS V14.00,2014-04-19 13:23:00,
2014-04-19 08:24:00,48.9,36.5,30.17,SE,140,6.0,9.0,62,0.00,,CLR,0.00,311.00,VWS V14.00,2014-04-19 13:24:00,
2014-04-19 08:26:00,49.1,36.2,30.18,East,99,8.0,13.0,61,0.00,,CLR,0.00,320.00,VWS V14.00,2014-04-19 13:26:00,
2014-04-19 08:27:00,49.2,36.3,30.18,ESE,119,9.0,13.0,61,0.00,,CLR,0.00,322.00,VWS V14.00,2014-04-19 13:27:00,
2014-04-19 08:28:00,49.3,36.0,30.18,East,95,7.0,11.0,60,0.00,,CLR,0.00,320.00,VWS V14.00,2014-04-19 13:28:00,
2014-04-19 08:29:00,49.4,36.1,30.18,ESE,105,5.0,11.0,60,0.00,,CLR,0.00,320.00,VWS V14.00,2014-04-19 13:29:00,
2014-04-19 08:35:00,49.7,36.8,30.18,SE,135,7.0,12.0,61,0.54,,CLR,0.00,333.00,VWS V14.00,2014-04-19 13:35:00,
2014-04-19 08:40:00,50.1,36.8,30.17,SE,135,6.0,12.0,60,0.54,,CLR,0.00,351.00,VWS V14.00,2014-04-19 13:40:00,
2014-04-19 08:53:00,51.0,37.6,30.18,SE,135,7.0,12.0,60,0.54,,CLR,0.00,382.00,VWS V14.00,2014-04-19 13:53:00,
2014-04-19 08:54:00,51.7,37.8,30.18,SE,132,6.0,6.0,59,0.00,,CLR,0.00,406.00,VWS V14.00,2014-04-19 13:54:00,
2014-04-19 08:58:00,52.3,38.4,30.18,ESE,115,8.0,11.0,59,0.00,,CLR,0.00,422.00,VWS V14.00,2014-04-19 13:58:00,
2014-04-19 08:59:00,52.3,38.4,30.18,SE,131,5.0,11.0,59,0.00,,CLR,0.00,422.00,VWS V14.00,2014-04-19 13:59:00,
2014-04-19 09:03:00,53.0,38.2,30.18,SE,127,8.0,11.0,57,0.00,,CLR,0.00,436.00,VWS V14.00,2014-04-19 14:03:00,
2014-04-19 09:04:00,53.0,38.2,30.18,SE,136,7.0,11.0,57,0.00,,CLR,0.00,436.00,VWS V14.00,2014-04-19 14:04:00,
2014-04-19 09:09:00,53.5,38.7,30.18,SSE,152,4.0,7.0,57,0.00,,CLR,0.00,452.00,VWS V14.00,2014-04-19 14:09:00,
2014-04-19 09:10:00,53.6,38.8,30.18,SSE,165,6.0,9.0,57,0.00,,CLR,0.00,455.00,VWS V14.00,2014-04-19 14:10:00,
2014-04-19 09:14:00,54.2,39.3,30.17,ESE,121,5.0,9.0,57,0.00,,CLR,0.00,469.00,VWS V14.00,2014-04-19 14:14:00,
2014-04-19 09:15:00,54.3,39.0,30.18,SSW,194,6.0,9.0,56,0.00,,CLR,0.00,473.00,VWS V14.00,2014-04-19 14:15:00,
2014-04-19 09:19:00,54.6,38.8,30.18,SSE,149,4.0,7.0,55,0.00,,CLR,0.00,485.00,VWS V14.00,2014-04-19 14:19:00,
2014-04-19 09:20:00,54.6,38.8,30.18,SSE,162,7.0,11.0,55,0.00,,CLR,0.00,490.00,VWS V14.00,2014-04-19 14:20:00,
2014-04-19 09:21:00,54.7,38.9,30.17,SE,130,8.0,11.0,55,0.00,,CLR,0.00,492.00,VWS V14.00,2014-04-19 14:21:00,
2014-04-19 09:24:00,54.8,39.0,30.17,SE,137,6.0,9.0,55,0.00,,CLR,0.00,499.00,VWS V14.00,2014-04-19 14:24:00,
2014-04-19 09:25:00,54.8,39.0,30.17,SSE,148,5.0,9.0,55,0.00,,CLR,0.00,503.00,VWS V14.00,2014-04-19 14:25:00,
2014-04-19 09:26:00,54.9,39.5,30.17,SE,141,8.0,9.0,56,0.00,,CLR,0.00,504.00,VWS V14.00,2014-04-19 14:26:00,
2014-04-19 09:27:00,55.0,39.2,30.17,ESE,123,5.0,9.0,55,0.00,,CLR,0.00,510.00,VWS V14.00,2014-04-19 14:27:00,
2014-04-19 09:29:00,55.2,39.3,30.17,SE,141,6.0,9.0,55,0.00,,CLR,0.00,512.00,VWS V14.00,2014-04-19 14:29:00,
2014-04-19 09:30:00,55.2,39.3,30.17,South,176,1.0,9.0,55,0.00,,CLR,0.00,513.00,VWS V14.00,2014-04-19 14:30:00,
2014-04-19 09:31:00,55.3,39.9,30.17,SE,130,7.0,9.0,56,0.00,,CLR,0.00,517.00,VWS V14.00,2014-04-19 14:31:00,
2014-04-19 09:32:00,55.4,39.0,30.17,SSE,154,9.0,9.0,54,0.00,,CLR,0.00,517.00,VWS V14.00,2014-04-19 14:32:00,
2014-04-19 09:34:00,55.6,39.7,30.17,SE,126,7.0,9.0,55,0.00,,CLR,0.00,524.00,VWS V14.00,2014-04-19 14:34:00,
2014-04-19 09:35:00,55.7,39.8,30.17,SE,128,7.0,9.0,55,0.00,,CLR,0.00,527.00,VWS V14.00,2014-04-19 14:35:00,
2014-04-19 09:36:00,55.8,39.9,30.17,ESE,105,7.0,11.0,55,0.00,,CLR,0.00,534.00,VWS V14.00,2014-04-19 14:36:00,
2014-04-19 09:37:00,56.0,39.6,30.17,SE,134,8.0,11.0,54,0.00,,CLR,0.00,538.00,VWS V14.00,2014-04-19 14:37:00,
2014-04-19 09:39:00,56.2,40.3,30.17,SSE,148,5.0,9.0,55,0.00,,CLR,0.00,554.00,VWS V14.00,2014-04-19 14:39:00,
2014-04-19 09:40:00,56.3,39.9,30.17,South,169,5.0,9.0,54,0.00,,CLR,0.00,554.00,VWS V14.00,2014-04-19 14:40:00,
2014-04-19 09:42:00,56.6,40.2,30.17,SE,132,9.0,13.0,54,0.00,,CLR,0.00,559.00,VWS V14.00,2014-04-19 14:42:00,
2014-04-19 09:44:00,56.7,40.3,30.17,SE,128,6.0,11.0,54,0.00,,CLR,0.00,563.00,VWS V14.00,2014-04-19 14:44:00,
2014-04-19 09:45:00,56.8,39.9,30.17,SE,126,6.0,11.0,53,0.00,,CLR,0.00,563.00,VWS V14.00,2014-04-19 14:45:00,
2014-04-19 09:47:00,56.9,39.5,30.17,SE,128,9.0,13.0,52,0.00,,CLR,0.00,570.00,VWS V14.00,2014-04-19 14:47:00,
2014-04-19 09:48:00,56.9,39.5,30.17,SE,142,8.0,11.0,52,0.00,,CLR,0.00,577.00,VWS V14.00,2014-04-19 14:48:00,
2014-04-19 09:49:00,57.0,39.6,30.17,South,181,5.0,11.0,52,0.00,,CLR,0.00,580.00,VWS V14.00,2014-04-19 14:49:00,
2014-04-19 09:50:00,57.0,39.6,30.17,SE,128,5.0,11.0,52,0.00,,CLR,0.00,582.00,VWS V14.00,2014-04-19 14:50:00,
2014-04-19 09:51:00,57.0,39.6,30.17,SSE,152,5.0,11.0,52,0.00,,CLR,0.00,582.00,VWS V14.00,2014-04-19 14:51:00,
2014-04-19 09:53:00,57.2,41.2,30.17,ESE,121,8.0,11.0,55,0.00,,CLR,0.00,582.00,VWS V14.00,2014-04-19 14:53:00,
2014-04-19 09:54:00,57.5,40.5,30.17,SE,136,6.0,8.0,53,0.00,,CLR,0.00,596.00,VWS V14.00,2014-04-19 14:54:00,
2014-04-19 09:55:00,57.7,40.2,30.17,SE,124,8.0,13.0,52,0.00,,CLR,0.00,591.00,VWS V14.00,2014-04-19 14:55:00,
2014-04-19 09:56:00,57.7,40.2,30.17,ESE,109,8.0,13.0,52,0.00,,CLR,0.00,591.00,VWS V14.00,2014-04-19 14:56:00,
2014-04-19 09:58:00,57.8,40.3,30.17,SSE,156,8.0,9.0,52,0.00,,CLR,0.00,615.00,VWS V14.00,2014-04-19 14:58:00,
2014-04-19 09:59:00,57.9,39.9,30.16,SE,142,7.0,11.0,51,0.00,,CLR,0.00,615.00,VWS V14.00,2014-04-19 14:59:00,
2014-04-19 10:01:00,58.1,41.1,30.16,ESE,119,7.0,11.0,53,0.00,,CLR,0.00,617.00,VWS V14.00,2014-04-19 15:01:00,
2014-04-19 10:03:00,58.5,41.5,30.16,SE,145,6.0,8.0,53,0.00,,CLR,0.00,624.00,VWS V14.00,2014-04-19 15:03:00,
2014-04-19 10:04:00,58.6,41.0,30.16,SSE,167,7.0,8.0,52,0.00,,CLR,0.00,628.00,VWS V14.00,2014-04-19 15:04:00,
2014-04-19 10:05:00,58.7,41.1,30.16,SE,143,7.0,8.0,52,0.00,,CLR,0.00,628.00,VWS V14.00,2014-04-19 15:05:00,
2014-04-19 10:06:00,58.9,40.3,30.16,ESE,121,12.0,15.0,50,0.00,,CLR,0.00,603.00,VWS V14.00,2014-04-19 15:06:00,
2014-04-19 10:07:00,58.9,40.3,30.16,SE,134,5.0,15.0,50,0.00,,CLR,0.00,622.00,VWS V14.00,2014-04-19 15:07:00,
2014-04-19 10:09:00,59.1,41.0,30.15,ESE,122,5.0,12.0,51,0.00,,CLR,0.00,633.00,VWS V14.00,2014-04-19 15:09:00,
2014-04-19 10:10:00,59.1,41.0,30.15,SSE,150,9.0,12.0,51,0.00,,CLR,0.00,633.00,VWS V14.00,2014-04-19 15:10:00,
2014-04-19 10:11:00,59.1,40.5,30.15,SE,127,7.0,12.0,50,0.00,,CLR,0.00,612.00,VWS V14.00,2014-04-19 15:11:00,
2014-04-19 10:13:00,59.3,40.7,30.15,SE,146,6.0,9.0,50,0.00,,CLR,0.00,626.00,VWS V14.00,2014-04-19 15:13:00,
2014-04-19 10:14:00,59.4,41.3,30.15,SSE,159,10.0,12.0,51,0.00,,CLR,0.00,673.00,VWS V14.00,2014-04-19 15:14:00,
2014-04-19 10:15:00,59.4,41.3,30.15,SSE,167,5.0,12.0,51,0.00,,CLR,0.00,673.00,VWS V14.00,2014-04-19 15:15:00,
2014-04-19 10:16:00,59.7,41.0,30.14,ESE,118,8.0,12.0,50,0.00,,CLR,0.00,628.00,VWS V14.00,2014-04-19 15:16:00,
2014-04-19 10:18:00,59.8,41.7,30.14,SE,128,8.0,9.0,51,0.00,,CLR,0.00,540.00,VWS V14.00,2014-04-19 15:18:00,
2014-04-19 10:20:00,59.9,41.2,30.14,ESE,118,6.0,11.0,50,0.00,,CLR,0.00,571.00,VWS V14.00,2014-04-19 15:20:00,
2014-04-19 10:21:00,59.9,41.8,30.14,SE,128,4.0,11.0,51,0.00,,CLR,0.00,629.00,VWS V14.00,2014-04-19 15:21:00,
2014-04-19 10:22:00,60.0,42.3,30.15,SE,146,6.0,11.0,52,0.00,,CLR,0.00,677.00,VWS V14.00,2014-04-19 15:22:00,
2014-04-19 10:24:00,60.4,42.2,30.15,South,172,5.0,8.0,51,0.00,,CLR,0.00,664.00,VWS V14.00,2014-04-19 15:24:00,
2014-04-19 10:25:00,60.4,41.2,30.15,ESE,123,9.0,9.0,49,0.00,,CLR,0.00,647.00,VWS V14.00,2014-04-19 15:25:00,
2014-04-19 10:26:00,60.5,41.8,30.15,SE,142,9.0,10.0,50,0.00,,CLR,0.00,663.00,VWS V14.00,2014-04-19 15:26:00,
2014-04-19 10:29:00,60.6,42.4,30.15,SE,138,7.0,7.0,51,0.00,,CLR,0.00,584.00,VWS V14.00,2014-04-19 15:29:00,
2014-04-19 10:30:00,60.8,42.1,30.14,SSE,152,5.0,8.0,50,0.00,,CLR,0.00,635.00,VWS V14.00,2014-04-19 15:30:00,
2014-04-19 10:31:00,61.1,43.4,30.14,SSE,161,7.0,11.0,52,0.00,,CLR,0.00,671.00,VWS V14.00,2014-04-19 15:31:00,
2014-04-19 10:32:00,61.2,43.0,30.14,SE,146,8.0,11.0,51,0.00,,CLR,0.00,671.00,VWS V14.00,2014-04-19 15:32:00,
2014-04-19 10:34:00,61.5,42.7,30.14,SE,146,7.0,12.0,50,0.00,,CLR,0.00,654.00,VWS V14.00,2014-04-19 15:34:00,
2014-04-19 10:35:00,61.6,42.3,30.14,South,190,6.0,12.0,49,0.00,,CLR,0.00,682.00,VWS V14.00,2014-04-19 15:35:00,
2014-04-19 10:37:00,61.7,42.4,30.14,South,183,4.0,12.0,49,0.00,,CLR,0.00,687.00,VWS V14.00,2014-04-19 15:37:00,
2014-04-19 10:39:00,61.8,43.0,30.14,South,173,5.0,10.0,50,0.00,,CLR,0.00,686.00,VWS V14.00,2014-04-19 15:39:00,
2014-04-19 10:40:00,62.0,43.2,30.14,SSE,157,5.0,10.0,50,0.00,,CLR,0.00,673.00,VWS V14.00,2014-04-19 15:40:00,
2014-04-19 10:42:00,62.1,42.7,30.14,SE,146,7.0,12.0,49,0.00,,CLR,0.00,721.00,VWS V14.00,2014-04-19 15:42:00,
2014-04-19 10:43:00,62.2,42.8,30.14,SSE,154,7.0,8.0,49,0.00,,CLR,0.00,645.00,VWS V14.00,2014-04-19 15:43:00,
2014-04-19 10:44:00,62.3,42.9,30.14,South,171,6.0,8.0,49,0.00,,CLR,0.00,670.00,VWS V14.00,2014-04-19 15:44:00,
2014-04-19 10:45:00,62.4,43.0,30.14,SE,133,8.0,8.0,49,0.00,,CLR,0.00,670.00,VWS V14.00,2014-04-19 15:45:00,
2014-04-19 10:48:00,62.6,43.2,30.15,South,172,9.0,11.0,49,0.00,,CLR,0.00,708.00,VWS V14.00,2014-04-19 15:48:00,
2014-04-19 10:50:00,62.7,43.3,30.15,SSE,148,6.0,8.0,49,0.00,,CLR,0.00,561.00,VWS V14.00,2014-04-19 15:50:00,
2014-04-19 10:53:00,62.8,42.8,30.14,ESE,117,9.0,9.0,48,0.00,,CLR,0.00,508.00,VWS V14.00,2014-04-19 15:53:00,
2014-04-19 10:55:00,62.7,42.2,30.14,SSE,154,5.0,13.0,47,0.00,,CLR,0.00,475.00,VWS V14.00,2014-04-19 15:55:00,
2014-04-19 10:56:00,62.7,42.8,30.14,SE,144,9.0,13.0,48,0.00,,CLR,0.00,443.00,VWS V14.00,2014-04-19 15:56:00,
2014-04-19 10:57:00,62.7,42.8,30.14,SE,146,9.0,13.0,48,0.00,,CLR,0.00,482.00,VWS V14.00,2014-04-19 15:57:00,
2014-04-19 10:58:00,62.7,43.3,30.14,SE,131,5.0,7.0,49,0.00,,CLR,0.00,540.00,VWS V14.00,2014-04-19 15:58:00,
2014-04-19 11:00:00,62.9,43.5,30.14,South,178,5.0,10.0,49,0.00,,CLR,0.00,636.00,VWS V14.00,2014-04-19 16:00:00,
2014-04-19 11:01:00,63.0,44.1,30.14,SSE,162,4.0,10.0,50,0.00,,CLR,0.00,691.00,VWS V14.00,2014-04-19 16:01:00,
2014-04-19 11:02:00,63.1,44.2,30.14,SSW,205,3.0,10.0,50,0.00,,CLR,0.00,754.00,VWS V14.00,2014-04-19 16:02:00,
2014-04-19 11:03:00,63.4,44.5,30.13,SSW,198,3.0,4.0,50,0.00,,CLR,0.00,765.00,VWS V14.00,2014-04-19 16:03:00,
2014-04-19 11:04:00,63.6,45.2,30.13,SE,139,10.0,10.0,51,0.00,,CLR,0.00,721.00,VWS V14.00,2014-04-19 16:04:00,
2014-04-19 11:05:00,63.9,44.9,30.13,SSE,157,7.0,10.0,50,0.00,,CLR,0.00,726.00,VWS V14.00,2014-04-19 16:05:00,
2014-04-19 11:06:00,64.0,45.0,30.13,South,187,5.0,10.0,50,0.00,,CLR,0.00,740.00,VWS V14.00,2014-04-19 16:06:00,
2014-04-19 11:07:00,64.3,44.2,30.13,SSE,163,7.0,12.0,48,0.00,,CLR,0.00,754.00,VWS V14.00,2014-04-19 16:07:00,
2014-04-19 11:08:00,64.4,44.3,30.13,South,179,5.0,11.0,48,0.00,,CLR,0.00,719.00,VWS V14.00,2014-04-19 16:08:00,
2014-04-19 11:09:00,64.6,45.0,30.13,SE,141,8.0,16.0,49,0.00,,CLR,0.00,628.00,VWS V14.00,2014-04-19 16:09:00,
2014-04-19 11:11:00,64.8,45.2,30.13,SE,143,7.0,16.0,49,0.00,,CLR,0.00,721.00,VWS V14.00,2014-04-19 16:11:00,
2014-04-19 11:12:00,64.9,43.7,30.13,SSE,162,8.0,16.0,46,0.00,,CLR,0.00,517.00,VWS V14.00,2014-04-19 16:12:00,
2014-04-19 11:13:00,65.0,44.3,30.13,SE,142,6.0,9.0,47,0.00,,CLR,0.00,554.00,VWS V14.00,2014-04-19 16:13:00,
2014-04-19 11:14:00,65.0,44.3,30.13,South,173,4.0,9.0,47,0.00,,CLR,0.00,554.00,VWS V14.00,2014-04-19 16:14:00,
2014-04-19 11:16:00,65.0,44.3,30.12,South,181,8.0,15.0,47,0.00,,CLR,0.00,396.00,VWS V14.00,2014-04-19 16:16:00,
2014-04-19 11:18:00,65.1,44.4,30.12,South,177,6.0,15.0,47,0.00,,CLR,0.00,466.00,VWS V14.00,2014-04-19 16:18:00,
2014-04-19 11:19:00,65.2,44.5,30.12,SSW,195,5.0,8.0,47,0.00,,CLR,0.00,466.00,VWS V14.00,2014-04-19 16:19:00,
2014-04-19 11:21:00,65.3,44.6,30.12,South,173,5.0,9.0,47,0.00,,CLR,0.00,758.00,VWS V14.00,2014-04-19 16:21:00,
2014-04-19 11:22:00,65.5,45.8,30.12,South,169,2.0,9.0,49,0.00,,CLR,0.00,638.00,VWS V14.00,2014-04-19 16:22:00,
2014-04-19 11:24:00,65.9,45.7,30.12,South,172,7.0,10.0,48,0.00,,CLR,0.00,519.00,VWS V14.00,2014-04-19 16:24:00,
2014-04-19 11:25:00,66.0,45.2,30.12,SSE,159,6.0,12.0,47,0.00,,CLR,0.00,483.00,VWS V14.00,2014-04-19 16:25:00,
2014-04-19 11:26:00,66.2,45.4,30.12,South,171,7.0,12.0,47,0.00,,CLR,0.00,564.00,VWS V14.00,2014-04-19 16:26:00,
2014-04-19 11:27:00,66.3,45.5,30.12,SSE,147,9.0,13.0,47,0.00,,CLR,0.00,526.00,VWS V14.00,2014-04-19 16:27:00,
2014-04-19 11:29:00,66.5,45.7,30.12,South,169,7.0,13.0,47,0.00,,CLR,0.00,575.00,VWS V14.00,2014-04-19 16:29:00,
2014-04-19 11:30:00,66.6,44.6,30.12,South,191,8.0,13.0,45,0.00,,CLR,0.00,550.00,VWS V14.00,2014-04-19 16:30:00,
2014-04-19 11:31:00,66.6,44.6,30.12,South,178,5.0,13.0,45,0.00,,CLR,0.00,526.00,VWS V14.00,2014-04-19 16:31:00,
2014-04-19 11:32:00,66.7,45.8,30.12,South,178,4.0,13.0,47,0.00,,CLR,0.00,534.00,VWS V14.00,2014-04-19 16:32:00,
2014-04-19 11:34:00,66.9,46.0,30.12,South,177,9.0,10.0,47,0.00,,CLR,0.00,554.00,VWS V14.00,2014-04-19 16:34:00,
2014-04-19 11:35:00,67.1,45.7,30.12,South,175,8.0,13.0,46,0.00,,CLR,0.00,575.00,VWS V14.00,2014-04-19 16:35:00,
2014-04-19 11:36:00,67.1,45.7,30.12,SSW,195,12.0,13.0,46,0.00,,CLR,0.00,584.00,VWS V14.00,2014-04-19 16:36:00,
2014-04-19 11:37:00,67.1,45.7,30.12,SSW,193,5.0,13.0,46,0.00,,CLR,0.00,584.00,VWS V14.00,2014-04-19 16:37:00,
2014-04-19 11:39:00,67.2,45.7,30.12,South,189,4.0,9.0,46,0.00,,CLR,0.00,606.00,VWS V14.00,2014-04-19 16:39:00,
2014-04-19 11:40:00,67.3,45.8,30.11,North,360,10.0,12.0,46,0.00,,CLR,0.00,552.00,VWS V14.00,2014-04-19 16:40:00,
2014-04-19 11:41:00,67.3,45.8,30.11,SSW,198,8.0,12.0,46,0.00,,CLR,0.00,552.00,VWS V14.00,2014-04-19 16:41:00,
2014-04-19 11:42:00,67.3,45.2,30.11,SSE,165,2.0,12.0,45,0.00,,CLR,0.00,554.00,VWS V14.00,2014-04-19 16:42:00,
2014-04-19 11:44:00,67.4,45.9,30.11,South,177,8.0,10.0,46,0.00,,CLR,0.00,610.00,VWS V14.00,2014-04-19 16:44:00,
2014-04-19 11:45:00,67.5,45.4,30.11,South,186,7.0,15.0,45,0.00,,CLR,0.00,617.00,VWS V14.00,2014-04-19 16:45:00,
2014-04-19 11:46:00,67.6,44.9,30.11,SSE,150,5.0,15.0,44,0.00,,CLR,0.00,631.00,VWS V14.00,2014-04-19 16:46:00,
2014-04-19 11:47:00,67.6,45.5,30.11,SSE,164,8.0,15.0,45,0.00,,CLR,0.00,631.00,VWS V14.00,2014-04-19 16:47:00,
2014-04-19 11:50:00,67.8,46.3,30.11,South,177,8.0,13.0,46,0.00,,CLR,0.00,742.00,VWS V14.00,2014-04-19 16:50:00,
2014-04-19 11:52:00,67.9,46.4,30.11,SE,127,8.0,13.0,46,0.00,,CLR,0.00,613.00,VWS V14.00,2014-04-19 16:52:00,
2014-04-19 11:53:00,68.0,45.9,30.11,SE,134,9.0,13.0,45,0.00,,CLR,0.00,575.00,VWS V14.00,2014-04-19 16:53:00,
2014-04-19 11:55:00,68.1,45.4,30.11,South,173,7.0,13.0,44,0.00,,CLR,0.00,515.00,VWS V14.00,2014-04-19 16:55:00,
2014-04-19 11:57:00,68.1,46.0,30.11,SSW,193,7.0,13.0,45,0.00,,CLR,0.00,577.00,VWS V14.00,2014-04-19 16:57:00,
2014-04-19 11:58:00,68.2,46.1,30.11,South,173,10.0,15.0,45,0.00,,CLR,0.00,527.00,VWS V14.00,2014-04-19 16:58:00,
2014-04-19 12:00:00,68.2,45.5,30.11,SSE,167,10.0,15.0,44,0.00,,CLR,0.00,610.00,VWS V14.00,2014-04-19 17:00:00,
2014-04-19 12:02:00,68.2,46.1,30.11,SSW,194,14.0,15.0,45,0.00,,CLR,0.00,594.00,VWS V14.00,2014-04-19 17:02:00,
2014-04-19 12:03:00,68.2,45.5,30.10,South,180,6.0,8.0,44,0.00,,CLR,0.00,596.00,VWS V14.00,2014-04-19 17:03:00,
2014-04-19 12:05:00,68.5,46.3,30.10,SSE,157,6.0,11.0,45,0.00,,CLR,0.00,582.00,VWS V14.00,2014-04-19 17:05:00,
2014-04-19 12:07:00,68.6,45.8,30.10,SSW,192,7.0,13.0,44,0.00,,CLR,0.00,580.00,VWS V14.00,2014-04-19 17:07:00,
2014-04-19 12:08:00,68.7,45.9,30.10,SSW,205,9.0,12.0,44,0.00,,CLR,0.00,599.00,VWS V14.00,2014-04-19 17:08:00,
2014-04-19 12:09:00,68.7,45.3,30.10,SSW,208,9.0,12.0,43,0.00,,CLR,0.00,599.00,VWS V14.00,2014-04-19 17:09:00,
2014-04-19 12:11:00,68.8,46.6,30.10,South,184,7.0,12.0,45,0.00,,CLR,0.00,605.00,VWS V14.00,2014-04-19 17:11:00,
2014-04-19 12:12:00,68.9,46.1,30.10,South,176,13.0,14.0,44,0.00,,CLR,0.00,673.00,VWS V14.00,2014-04-19 17:12:00,
2014-04-19 12:13:00,69.0,46.2,30.10,South,174,10.0,10.0,44,0.00,,CLR,0.00,659.00,VWS V14.00,2014-04-19 17:13:00,
2014-04-19 12:14:00,69.0,46.8,30.10,South,178,8.0,10.0,45,0.00,,CLR,0.00,659.00,VWS V14.00,2014-04-19 17:14:00,
2014-04-19 12:16:00,69.2,45.8,30.10,SSE,159,5.0,13.0,43,0.00,,CLR,0.00,606.00,VWS V14.00,2014-04-19 17:16:00,
2014-04-19 12:17:00,69.3,46.5,30.09,SSE,150,7.0,13.0,44,0.00,,CLR,0.00,687.00,VWS V14.00,2014-04-19 17:17:00,
2014-04-19 12:18:00,69.4,46.6,30.10,SSE,162,8.0,12.0,44,0.00,,CLR,0.00,682.00,VWS V14.00,2014-04-19 17:18:00,
2014-04-19 12:19:00,69.5,46.0,30.10,SSE,152,6.0,12.0,43,0.00,,CLR,0.00,682.00,VWS V14.00,2014-04-19 17:19:00,
2014-04-19 12:22:00,69.9,47.0,30.09,SSE,153,9.0,13.0,44,0.00,,CLR,0.00,826.00,VWS V14.00,2014-04-19 17:22:00,
2014-04-19 12:23:00,70.0,46.5,30.09,SSE,155,4.0,13.0,43,0.00,,CLR,0.00,816.00,VWS V14.00,2014-04-19 17:23:00,
2014-04-19 12:24:00,70.1,46.6,30.09,SSE,157,6.0,14.0,43,0.00,,CLR,0.00,817.00,VWS V14.00,2014-04-19 17:24:00,
2014-04-19 12:27:00,70.5,47.0,30.09,South,191,8.0,14.0,43,0.00,,CLR,0.00,782.00,VWS V14.00,2014-04-19 17:27:00,
2014-04-19 12:28:00,70.5,46.3,30.09,SSW,209,7.0,14.0,42,0.00,,CLR,0.00,763.00,VWS V14.00,2014-04-19 17:28:00,
2014-04-19 12:29:00,70.6,47.0,30.09,South,183,5.0,12.0,43,0.00,,CLR,0.00,758.00,VWS V14.00,2014-04-19 17:29:00,
2014-04-19 12:30:00,70.7,47.1,30.09,South,184,5.0,12.0,43,0.00,,CLR,0.00,773.00,VWS V14.00,2014-04-19 17:30:00,
2014-04-19 12:32:00,70.8,46.6,30.09,SSE,161,10.0,15.0,42,0.00,,CLR,0.00,847.00,VWS V14.00,2014-04-19 17:32:00,
2014-04-19 12:33:00,70.8,46.6,30.09,SSW,196,11.0,11.0,42,0.00,,CLR,0.00,770.00,VWS V14.00,2014-04-19 17:33:00,
2014-04-19 12:34:00,70.8,46.6,30.09,South,181,9.0,17.0,42,0.00,,CLR,0.00,735.00,VWS V14.00,2014-04-19 17:34:00,
2014-04-19 12:35:00,70.9,46.7,30.09,South,177,11.0,17.0,42,0.00,,CLR,0.00,642.00,VWS V14.00,2014-04-19 17:35:00,
2014-04-19 12:37:00,71.0,48.6,30.09,South,180,12.0,17.0,45,0.00,,CLR,0.00,668.00,VWS V14.00,2014-04-19 17:37:00,
2014-04-19 12:38:00,71.1,46.2,30.09,SW,219,13.0,13.0,41,0.00,,CLR,0.00,675.00,VWS V14.00,2014-04-19 17:38:00,
2014-04-19 12:39:00,71.2,46.3,30.08,SSW,207,7.0,13.0,41,0.00,,CLR,0.00,675.00,VWS V14.00,2014-04-19 17:39:00,
2014-04-19 12:41:00,71.3,47.0,30.08,SW,217,14.0,14.0,42,0.00,,CLR,0.00,768.00,VWS V14.00,2014-04-19 17:41:00,
2014-04-19 12:42:00,71.4,47.1,30.08,SW,219,8.0,14.0,42,0.00,,CLR,0.00,745.00,VWS V14.00,2014-04-19 17:42:00,
2014-04-19 12:43:00,71.4,47.1,30.08,SSW,209,6.0,9.0,42,0.00,,CLR,0.00,735.00,VWS V14.00,2014-04-19 17:43:00,
2014-04-19 12:44:00,71.5,47.8,30.08,SSE,155,9.0,14.0,43,0.00,,CLR,0.00,735.00,VWS V14.00,2014-04-19 17:44:00,
2014-04-19 12:48:00,71.5,45.9,30.08,South,182,4.0,10.0,40,0.00,,CLR,0.00,710.00,VWS V14.00,2014-04-19 17:48:00,
2014-04-19 12:49:00,71.4,46.5,30.08,SSE,163,10.0,13.0,41,0.00,,CLR,0.00,687.00,VWS V14.00,2014-04-19 17:49:00,
2014-04-19 12:50:00,71.5,45.9,30.08,SE,132,9.0,13.0,40,0.00,,CLR,0.00,670.00,VWS V14.00,2014-04-19 17:50:00,
2014-04-19 12:53:00,71.5,46.6,30.08,South,188,6.0,9.0,41,0.00,,CLR,0.00,717.00,VWS V14.00,2014-04-19 17:53:00,
2014-04-19 12:54:00,71.5,46.6,30.08,SSE,153,11.0,12.0,41,0.00,,CLR,0.00,752.00,VWS V14.00,2014-04-19 17:54:00,
2014-04-19 12:55:00,71.5,46.6,30.08,SSW,192,8.0,12.0,41,0.00,,CLR,0.00,733.00,VWS V14.00,2014-04-19 17:55:00,
2014-04-19 12:58:00,71.6,46.7,30.08,South,183,4.0,7.0,41,0.00,,CLR,0.00,756.00,VWS V14.00,2014-04-19 17:58:00,
2014-04-19 12:59:00,71.6,46.7,30.08,South,188,5.0,16.0,41,0.00,,CLR,0.00,712.00,VWS V14.00,2014-04-19 17:59:00,
2014-04-19 13:00:00,71.7,46.8,30.08,South,172,11.0,16.0,41,0.00,,CLR,0.00,696.00,VWS V14.00,2014-04-19 18:00:00,
2014-04-19 13:01:00,71.7,46.8,30.08,SE,132,9.0,16.0,41,0.00,,CLR,0.00,696.00,VWS V14.00,2014-04-19 18:01:00,
2014-04-19 13:03:00,71.7,46.1,30.08,SE,144,11.0,11.0,40,0.00,,CLR,0.00,617.00,VWS V14.00,2014-04-19 18:03:00,
2014-04-19 13:04:00,71.7,46.1,30.08,SSW,196,6.0,14.0,40,0.00,,CLR,0.00,559.00,VWS V14.00,2014-04-19 18:04:00,
2014-04-19 13:05:00,71.7,46.8,30.08,SSW,196,9.0,14.0,41,0.00,,CLR,0.00,510.00,VWS V14.00,2014-04-19 18:05:00,
2014-04-19 13:06:00,71.7,46.1,30.08,SSE,148,5.0,14.0,40,0.00,,CLR,0.00,469.00,VWS V14.00,2014-04-19 18:06:00,
2014-04-19 13:08:00,71.6,46.7,30.08,SSE,165,6.0,7.0,41,0.00,,CLR,0.00,538.00,VWS V14.00,2014-04-19 18:08:00,
2014-04-19 13:09:00,71.6,46.7,30.08,South,176,8.0,14.0,41,0.00,,CLR,0.00,605.00,VWS V14.00,2014-04-19 18:09:00,
2014-04-19 13:11:00,71.5,46.6,30.08,South,184,3.0,14.0,41,0.00,,CLR,0.00,636.00,VWS V14.00,2014-04-19 18:11:00,
2014-04-19 13:13:00,71.6,47.3,30.07,SSW,201,7.0,12.0,42,0.00,,CLR,0.00,582.00,VWS V14.00,2014-04-19 18:13:00,
2014-04-19 13:14:00,71.7,47.4,30.07,SSW,194,8.0,13.0,42,0.00,,CLR,0.00,680.00,VWS V14.00,2014-04-19 18:14:00,
2014-04-19 13:16:00,71.7,46.8,30.07,SSE,159,5.0,14.0,41,0.00,,CLR,0.00,687.00,VWS V14.00,2014-04-19 18:16:00,
2014-04-19 13:18:00,71.9,47.0,30.07,SSE,149,8.0,9.0,41,0.00,,CLR,0.00,717.00,VWS V14.00,2014-04-19 18:18:00,
2014-04-19 13:20:00,72.1,47.1,30.07,SSE,157,6.0,10.0,41,0.00,,CLR,0.00,742.00,VWS V14.00,2014-04-19 18:20:00,
2014-04-19 13:21:00,72.3,47.3,30.07,SSE,163,8.0,14.0,41,0.00,,CLR,0.00,766.00,VWS V14.00,2014-04-19 18:21:00,
2014-04-19 13:22:00,72.4,46.7,30.07,SSE,164,10.0,14.0,40,0.00,,CLR,0.00,766.00,VWS V14.00,2014-04-19 18:22:00,
2014-04-19 13:24:00,72.5,47.5,30.07,SSW,197,7.0,12.0,41,0.00,,CLR,0.00,802.00,VWS V14.00,2014-04-19 18:24:00,
2014-04-19 13:25:00,72.6,47.6,30.07,South,188,5.0,13.0,41,0.00,,CLR,0.00,833.00,VWS V14.00,2014-04-19 18:25:00,
2014-04-19 13:26:00,72.8,49.6,30.07,South,169,5.0,13.0,44,0.00,,CLR,0.00,831.00,VWS V14.00,2014-04-19 18:26:00,
2014-04-19 13:27:00,72.9,47.2,30.07,South,176,6.0,13.0,40,0.00,,CLR,0.00,831.00,VWS V14.00,2014-04-19 18:27:00,
2014-04-19 13:29:00,73.1,48.7,30.07,South,180,4.0,11.0,42,0.00,,CLR,0.00,784.00,VWS V14.00,2014-04-19 18:29:00,
2014-04-19 13:30:00,73.3,47.5,30.06,SSE,157,4.0,12.0,40,0.00,,CLR,0.00,814.00,VWS V14.00,2014-04-19 18:30:00,
2014-04-19 13:32:00,73.6,47.1,30.06,SSE,153,6.0,12.0,39,0.00,,CLR,0.00,846.00,VWS V14.00,2014-04-19 18:32:00,
2014-04-19 13:34:00,73.9,46.7,30.06,SE,142,8.0,14.0,38,0.00,,CLR,0.00,870.00,VWS V14.00,2014-04-19 18:34:00,
2014-04-19 13:35:00,74.0,47.5,30.06,South,178,8.0,14.0,39,0.00,,CLR,0.00,867.00,VWS V14.00,2014-04-19 18:35:00,
2014-04-19 13:36:00,74.2,47.7,30.06,SSE,151,7.0,14.0,39,0.00,,CLR,0.00,872.00,VWS V14.00,2014-04-19 18:36:00,
2014-04-19 13:37:00,74.3,47.8,30.06,South,173,4.0,14.0,39,0.00,,CLR,0.00,865.00,VWS V14.00,2014-04-19 18:37:00,
2014-04-19 13:39:00,74.6,46.6,30.06,South,179,5.0,9.0,37,0.00,,CLR,0.00,824.00,VWS V14.00,2014-04-19 18:39:00,
2014-04-19 13:40:00,74.7,46.7,30.06,SE,141,9.0,13.0,37,0.00,,CLR,0.00,773.00,VWS V14.00,2014-04-19 18:40:00,
2014-04-19 13:42:00,74.8,46.8,30.06,South,169,8.0,15.0,37,0.00,,CLR,0.00,782.00,VWS V14.00,2014-04-19 18:42:00,
2014-04-19 13:44:00,74.7,46.7,30.05,South,171,8.0,11.0,37,0.00,,CLR,0.00,729.00,VWS V14.00,2014-04-19 18:44:00,
2014-04-19 13:46:00,74.7,46.0,30.05,SSE,152,12.0,17.0,36,0.00,,CLR,0.00,756.00,VWS V14.00,2014-04-19 18:46:00,
2014-04-19 13:47:00,74.6,45.9,30.05,SSW,205,8.0,17.0,36,0.00,,CLR,0.00,756.00,VWS V14.00,2014-04-19 18:47:00,
2014-04-19 13:48:00,74.6,46.6,30.05,South,180,9.0,17.0,37,0.00,,CLR,0.00,756.00,VWS V14.00,2014-04-19 18:48:00,
2014-04-19 13:49:00,74.4,46.5,30.06,South,180,9.0,17.0,37,0.00,,CLR,0.00,775.00,VWS V14.00,2014-04-19 18:49:00,
2014-04-19 13:50:00,74.4,46.5,30.06,South,174,10.0,17.0,37,0.00,,CLR,0.00,772.00,VWS V14.00,2014-04-19 18:50:00,
2014-04-19 13:51:00,74.6,47.3,30.05,South,186,7.0,17.0,38,0.00,,CLR,0.00,816.00,VWS V14.00,2014-04-19 18:51:00,
2014-04-19 13:52:00,74.7,46.0,30.05,SSW,211,10.0,17.0,36,0.00,,CLR,0.00,817.00,VWS V14.00,2014-04-19 18:52:00,
2014-04-19 13:53:00,74.8,46.1,30.05,SSW,212,7.0,17.0,36,0.00,,CLR,0.00,817.00,VWS V14.00,2014-04-19 18:53:00,
2014-04-19 13:55:00,75.2,46.4,30.05,SSE,164,12.0,14.0,36,0.00,,CLR,0.00,768.00,VWS V14.00,2014-04-19 18:55:00,
2014-04-19 13:56:00,75.3,46.5,30.05,SE,143,8.0,14.0,36,0.00,,CLR,0.00,788.00,VWS V14.00,2014-04-19 18:56:00,
2014-04-19 13:58:00,75.4,46.6,30.05,South,169,12.0,14.0,36,0.00,,CLR,0.00,708.00,VWS V14.00,2014-04-19 18:58:00,
2014-04-19 14:00:00,75.3,47.3,30.05,SSW,198,6.0,14.0,37,0.00,,CLR,0.00,816.00,VWS V14.00,2014-04-19 19:00:00,
2014-04-19 14:01:00,75.3,46.5,30.05,SW,216,14.0,14.0,36,0.00,,CLR,0.00,789.00,VWS V14.00,2014-04-19 19:01:00,
2014-04-19 14:03:00,75.4,46.6,30.05,South,175,8.0,14.0,36,0.00,,CLR,0.00,821.00,VWS V14.00,2014-04-19 19:03:00,
2014-04-19 14:05:00,75.5,46.7,30.05,South,190,7.0,13.0,36,0.00,,CLR,0.00,675.00,VWS V14.00,2014-04-19 19:05:00,
2014-04-19 14:06:00,75.4,45.9,30.05,South,172,11.0,13.0,35,0.00,,CLR,0.00,675.00,VWS V14.00,2014-04-19 19:06:00,
2014-04-19 14:07:00,75.3,45.8,30.05,SSW,202,10.0,13.0,35,0.00,,CLR,0.00,591.00,VWS V14.00,2014-04-19 19:07:00,
2014-04-19 14:08:00,75.3,46.5,30.05,South,178,10.0,10.0,36,0.00,,CLR,0.00,612.00,VWS V14.00,2014-04-19 19:08:00,
2014-04-19 14:10:00,74.9,46.2,30.05,South,184,10.0,15.0,36,0.00,,CLR,0.00,534.00,VWS V14.00,2014-04-19 19:10:00,
2014-04-19 14:12:00,74.8,45.3,30.05,South,175,10.0,15.0,35,0.00,,CLR,0.00,650.00,VWS V14.00,2014-04-19 19:12:00,
2014-04-19 14:13:00,74.7,45.3,30.05,SE,132,8.0,10.0,35,0.00,,CLR,0.00,673.00,VWS V14.00,2014-04-19 19:13:00,
2014-04-19 14:16:00,74.4,45.7,30.05,South,178,6.0,14.0,36,0.00,,CLR,0.00,564.00,VWS V14.00,2014-04-19 19:16:00,
2014-04-19 14:17:00,74.3,47.1,30.05,SSW,200,6.0,14.0,38,0.00,,CLR,0.00,682.00,VWS V14.00,2014-04-19 19:17:00,
2014-04-19 14:18:00,74.4,47.2,30.05,South,184,10.0,12.0,38,0.00,,CLR,0.00,707.00,VWS V14.00,2014-04-19 19:18:00,
2014-04-19 14:19:00,74.4,46.5,30.05,South,190,3.0,14.0,37,0.00,,CLR,0.00,708.00,VWS V14.00,2014-04-19 19:19:00,
2014-04-19 14:21:00,74.5,45.8,30.05,SSW,196,7.0,14.0,36,0.00,,CLR,0.00,563.00,VWS V14.00,2014-04-19 19:21:00,
2014-04-19 14:22:00,74.4,46.5,30.05,SW,216,4.0,14.0,37,0.00,,CLR,0.00,508.00,VWS V14.00,2014-04-19 19:22:00,
2014-04-19 14:23:00,74.5,46.5,30.05,South,173,9.0,9.0,37,0.00,,CLR,0.00,513.00,VWS V14.00,2014-04-19 19:23:00,
2014-04-19 14:24:00,74.6,46.6,30.05,SW,215,5.0,11.0,37,0.00,,CLR,0.00,571.00,VWS V14.00,2014-04-19 19:24:00,
2014-04-19 14:26:00,74.6,46.6,30.05,South,182,10.0,16.0,37,0.00,,CLR,0.00,519.00,VWS V14.00,2014-04-19 19:26:00,
2014-04-19 14:27:00,74.5,46.5,30.05,South,184,4.0,16.0,37,0.00,,CLR,0.00,555.00,VWS V14.00,2014-04-19 19:27:00,
2014-04-19 14:28:00,74.5,46.5,30.05,SW,228,11.0,13.0,37,0.00,,CLR,0.00,541.00,VWS V14.00,2014-04-19 19:28:00,
2014-04-19 14:29:00,74.5,46.5,30.05,SSW,202,8.0,13.0,37,0.00,,CLR,0.00,471.00,VWS V14.00,2014-04-19 19:29:00,
2014-04-19 14:30:00,74.5,46.5,30.05,SSE,163,9.0,13.0,37,0.00,,CLR,0.00,448.00,VWS V14.00,2014-04-19 19:30:00,
2014-04-19 14:31:00,74.4,46.5,30.05,SSW,212,8.0,13.0,37,0.00,,CLR,0.00,478.00,VWS V14.00,2014-04-19 19:31:00,
2014-04-19 14:33:00,74.4,45.7,30.05,SSW,206,15.0,15.0,36,0.00,,CLR,0.00,531.00,VWS V14.00,2014-04-19 19:33:00,
2014-04-19 14:34:00,74.3,46.4,30.05,SSE,153,6.0,15.0,37,0.00,,CLR,0.00,571.00,VWS V14.00,2014-04-19 19:34:00,
2014-04-19 14:35:00,74.2,46.3,30.04,South,178,7.0,15.0,37,0.00,,CLR,0.00,480.00,VWS V14.00,2014-04-19 19:35:00,
2014-04-19 14:37:00,74.1,46.9,30.04,SSW,194,4.0,15.0,38,0.00,,CLR,0.00,432.00,VWS V14.00,2014-04-19 19:37:00,
2014-04-19 14:38:00,74.1,46.2,30.04,South,170,6.0,10.0,37,0.00,,CLR,0.00,450.00,VWS V14.00,2014-04-19 19:38:00,
2014-04-19 14:39:00,74.1,47.6,30.04,SSW,198,6.0,10.0,39,0.00,,CLR,0.00,450.00,VWS V14.00,2014-04-19 19:39:00,
2014-04-19 14:40:00,74.2,47.0,30.04,SW,226,9.0,11.0,38,0.00,,CLR,0.00,445.00,VWS V14.00,2014-04-19 19:40:00,
2014-04-19 14:42:00,74.2,47.0,30.04,SSE,160,9.0,12.0,38,0.00,,CLR,0.00,459.00,VWS V14.00,2014-04-19 19:42:00,
2014-04-19 14:44:00,74.3,47.8,30.04,South,180,7.0,12.0,39,0.00,,CLR,0.00,418.00,VWS V14.00,2014-04-19 19:44:00,
2014-04-19 14:46:00,74.3,47.1,30.04,SSW,202,8.0,18.0,38,0.00,,CLR,0.00,415.00,VWS V14.00,2014-04-19 19:46:00,
2014-04-19 14:48:00,74.2,47.0,30.04,South,180,8.0,18.0,38,0.00,,CLR,0.00,446.00,VWS V14.00,2014-04-19 19:48:00,
2014-04-19 14:49:00,74.0,46.8,30.04,South,188,8.0,17.0,38,0.00,,CLR,0.00,466.00,VWS V14.00,2014-04-19 19:49:00,
2014-04-19 14:51:00,74.0,46.8,30.03,SSW,205,8.0,17.0,38,0.00,,CLR,0.00,496.00,VWS V14.00,2014-04-19 19:51:00,
2014-04-19 14:53:00,73.9,47.4,30.04,SE,124,14.0,14.0,39,0.00,,CLR,0.00,622.00,VWS V14.00,2014-04-19 19:53:00,
2014-04-19 14:54:00,73.9,48.1,30.04,SSE,152,5.0,14.0,40,0.00,,CLR,0.00,698.00,VWS V14.00,2014-04-19 19:54:00,
2014-04-19 14:56:00,74.2,48.3,30.04,South,169,10.0,14.0,40,0.00,,CLR,0.00,642.00,VWS V14.00,2014-04-19 19:56:00,
2014-04-19 14:58:00,74.4,47.9,30.04,SSE,161,10.0,15.0,39,0.00,,CLR,0.00,633.00,VWS V14.00,2014-04-19 19:58:00,
2014-04-19 15:00:00,74.4,47.2,30.04,SSE,155,2.0,15.0,38,0.00,,CLR,0.00,564.00,VWS V14.00,2014-04-19 20:00:00,
2014-04-19 15:01:00,74.5,47.9,30.04,SE,142,8.0,15.0,39,0.00,,CLR,0.00,541.00,VWS V14.00,2014-04-19 20:01:00,
2014-04-19 15:03:00,74.6,47.3,30.04,South,190,9.0,13.0,38,0.00,,CLR,0.00,643.00,VWS V14.00,2014-04-19 20:03:00,
2014-04-19 15:04:00,74.6,47.3,30.04,SSW,202,7.0,13.0,38,0.00,,CLR,0.00,643.00,VWS V14.00,2014-04-19 20:04:00,
2014-04-19 15:05:00,74.6,46.6,30.04,SSE,168,10.0,13.0,37,0.00,,CLR,0.00,580.00,VWS V14.00,2014-04-19 20:05:00,
2014-04-19 15:06:00,74.6,47.3,30.04,SSW,199,8.0,13.0,38,0.00,,CLR,0.00,534.00,VWS V14.00,2014-04-19 20:06:00,
2014-04-19 15:08:00,74.5,47.2,30.03,SSW,213,10.0,10.0,38,0.00,,CLR,0.00,420.00,VWS V14.00,2014-04-19 20:08:00,
2014-04-19 15:09:00,74.5,47.2,30.03,SSW,205,14.0,14.0,38,0.00,,CLR,0.00,420.00,VWS V14.00,2014-04-19 20:09:00,
2014-04-19 15:10:00,74.4,47.2,30.03,SE,142,11.0,14.0,38,0.00,,CLR,0.00,578.00,VWS V14.00,2014-04-19 20:10:00,
2014-04-19 15:11:00,74.4,47.2,30.03,SSW,196,4.0,14.0,38,0.00,,CLR,0.00,563.00,VWS V14.00,2014-04-19 20:11:00,
2014-04-19 15:13:00,74.3,47.1,30.04,SW,216,5.0,9.0,38,0.00,,CLR,0.00,476.00,VWS V14.00,2014-04-19 20:13:00,
2014-04-19 15:15:00,74.2,46.3,30.03,SSW,201,5.0,13.0,37,0.00,,CLR,0.00,476.00,VWS V14.00,2014-04-19 20:15:00,
2014-04-19 15:16:00,74.2,47.0,30.03,South,191,6.0,13.0,38,0.00,,CLR,0.00,466.00,VWS V14.00,2014-04-19 20:16:00,
2014-04-19 15:19:00,74.1,46.9,30.03,South,186,11.0,12.0,38,0.00,,CLR,0.00,629.00,VWS V14.00,2014-04-19 20:19:00,
2014-04-19 15:20:00,74.2,47.0,30.03,SSE,153,9.0,12.0,38,0.00,,CLR,0.00,571.00,VWS V14.00,2014-04-19 20:20:00,
2014-04-19 15:21:00,74.2,47.0,30.03,SSW,194,9.0,12.0,38,0.00,,CLR,0.00,578.00,VWS V14.00,2014-04-19 20:21:00,
2014-04-19 15:24:00,74.6,47.3,30.03,SSW,208,9.0,13.0,38,0.00,,CLR,0.00,522.00,VWS V14.00,2014-04-19 20:24:00,
2014-04-19 15:25:00,74.6,46.6,30.03,South,174,7.0,13.0,37,0.00,,CLR,0.00,596.00,VWS V14.00,2014-04-19 20:25:00,
2014-04-19 15:26:00,74.6,47.3,30.03,SSW,202,5.0,13.0,38,0.00,,CLR,0.00,635.00,VWS V14.00,2014-04-19 20:26:00,
2014-04-19 15:28:00,74.7,46.7,30.03,South,189,5.0,14.0,37,0.00,,CLR,0.00,686.00,VWS V14.00,2014-04-19 20:28:00,
2014-04-19 15:29:00,74.7,46.0,30.02,SSE,161,7.0,11.0,36,0.00,,CLR,0.00,591.00,VWS V14.00,2014-04-19 20:29:00,
2014-04-19 15:30:00,74.7,47.4,30.02,South,179,5.0,11.0,38,0.00,,CLR,0.00,515.00,VWS V14.00,2014-04-19 20:30:00,
2014-04-19 15:31:00,74.8,46.8,30.02,SE,138,7.0,11.0,37,0.00,,CLR,0.00,515.00,VWS V14.00,2014-04-19 20:31:00,
2014-04-19 15:33:00,74.9,46.2,30.02,South,173,12.0,17.0,36,0.00,,CLR,0.00,503.00,VWS V14.00,2014-04-19 20:33:00,
2014-04-19 15:34:00,74.9,46.2,30.02,SSW,196,5.0,14.0,36,0.00,,CLR,0.00,494.00,VWS V14.00,2014-04-19 20:34:00,
2014-04-19 15:35:00,75.0,47.0,30.02,South,171,11.0,14.0,37,0.00,,CLR,0.00,461.00,VWS V14.00,2014-04-19 20:35:00,
2014-04-19 15:36:00,75.0,47.0,30.02,SSE,155,8.0,14.0,37,0.00,,CLR,0.00,461.00,VWS V14.00,2014-04-19 20:36:00,
2014-04-19 15:37:00,75.1,47.1,30.02,SSW,208,6.0,14.0,37,0.00,,CLR,0.00,366.00,VWS V14.00,2014-04-19 20:37:00,
2014-04-19 15:38:00,75.1,46.3,30.02,South,169,7.0,14.0,36,0.00,,CLR,0.00,348.00,VWS V14.00,2014-04-19 20:38:00,
2014-04-19 15:40:00,75.1,45.6,30.02,SSW,202,9.0,18.0,35,0.00,,CLR,0.00,383.00,VWS V14.00,2014-04-19 20:40:00,
2014-04-19 15:41:00,75.0,46.3,30.02,South,177,11.0,18.0,36,0.00,,CLR,0.00,519.00,VWS V14.00,2014-04-19 20:41:00,
2014-04-19 15:42:00,75.0,46.3,30.02,South,186,9.0,18.0,36,0.00,,CLR,0.00,519.00,VWS V14.00,2014-04-19 20:42:00,
2014-04-19 15:43:00,74.9,46.2,30.02,SSW,200,6.0,18.0,36,0.00,,CLR,0.00,496.00,VWS V14.00,2014-04-19 20:43:00,
2014-04-19 15:45:00,74.9,46.2,30.02,South,171,5.0,20.0,36,0.00,,CLR,0.00,561.00,VWS V14.00,2014-04-19 20:45:00,
2014-04-19 15:46:00,74.9,46.2,30.02,SSE,163,10.0,20.0,36,0.00,,CLR,0.00,564.00,VWS V14.00,2014-04-19 20:46:00,
2014-04-19 15:47:00,75.0,46.3,30.02,SSW,194,4.0,20.0,36,0.00,,CLR,0.00,566.00,VWS V14.00,2014-04-19 20:47:00,
2014-04-19 15:48:00,75.0,47.0,30.02,South,190,5.0,20.0,37,0.00,,CLR,0.00,494.00,VWS V14.00,2014-04-19 20:48:00,
2014-04-19 15:50:00,75.2,46.4,30.02,SSW,209,8.0,12.0,36,0.00,,CLR,0.00,436.00,VWS V14.00,2014-04-19 20:50:00,
2014-04-19 15:51:00,75.2,46.4,30.02,SSW,209,13.0,13.0,36,0.00,,CLR,0.00,417.00,VWS V14.00,2014-04-19 20:51:00,
2014-04-19 15:52:00,75.3,46.5,30.02,SSW,210,10.0,15.0,36,0.00,,CLR,0.00,403.00,VWS V14.00,2014-04-19 20:52:00,
2014-04-19 15:53:00,75.3,46.5,30.02,SW,225,8.0,10.0,36,0.00,,CLR,0.00,352.00,VWS V14.00,2014-04-19 20:53:00,
2014-04-19 15:56:00,75.3,46.5,30.02,SSE,161,9.0,16.0,36,0.00,,CLR,0.00,323.00,VWS V14.00,2014-04-19 20:56:00,
2014-04-19 15:57:00,75.2,46.4,30.02,SSW,205,5.0,16.0,36,0.00,,CLR,0.00,320.00,VWS V14.00,2014-04-19 20:57:00,
2014-04-19 15:58:00,75.1,46.3,30.02,South,174,8.0,10.0,36,0.00,,CLR,0.00,338.00,VWS V14.00,2014-04-19 20:58:00,
2014-04-19 15:59:00,75.1,46.3,30.02,South,188,11.0,12.0,36,0.00,,CLR,0.00,341.00,VWS V14.00,2014-04-19 20:59:00,
2014-04-19 16:01:00,75.1,46.3,30.02,SSW,206,12.0,12.0,36,0.00,,CLR,0.00,380.00,VWS V14.00,2014-04-19 21:01:00,
2014-04-19 16:02:00,75.1,46.3,30.02,SSW,192,14.0,14.0,36,0.00,,CLR,0.00,387.00,VWS V14.00,2014-04-19 21:02:00,
2014-04-19 16:04:00,75.1,46.3,30.02,SSE,162,8.0,14.0,36,0.00,,CLR,0.00,390.00,VWS V14.00,2014-04-19 21:04:00,
2014-04-19 16:06:00,75.0,46.3,30.02,South,172,8.0,15.0,36,0.00,,CLR,0.00,445.00,VWS V14.00,2014-04-19 21:06:00,
2014-04-19 16:07:00,75.0,46.3,30.02,SSE,167,11.0,15.0,36,0.00,,CLR,0.00,445.00,VWS V14.00,2014-04-19 21:07:00,
2014-04-19 16:09:00,74.9,46.9,30.02,South,174,9.0,14.0,37,0.00,,CLR,0.00,432.00,VWS V14.00,2014-04-19 21:09:00,
2014-04-19 16:10:00,74.9,46.9,30.02,SSW,209,7.0,14.0,37,0.00,,CLR,0.00,489.00,VWS V14.00,2014-04-19 21:10:00,
2014-04-19 16:11:00,75.1,46.3,30.02,SSW,204,9.0,14.0,36,0.00,,CLR,0.00,527.00,VWS V14.00,2014-04-19 21:11:00,
2014-04-19 16:12:00,75.1,46.3,30.02,SW,214,11.0,14.0,36,0.00,,CLR,0.00,527.00,VWS V14.00,2014-04-19 21:12:00,
2014-04-19 16:13:00,75.2,46.4,30.02,SW,215,8.0,14.0,36,0.00,,CLR,0.00,543.00,VWS V14.00,2014-04-19 21:13:00,
2014-04-19 16:15:00,75.3,46.5,30.02,SSW,206,6.0,16.0,36,0.00,,CLR,0.00,519.00,VWS V14.00,2014-04-19 21:15:00,
2014-04-19 16:16:00,75.5,46.7,30.02,SSW,204,9.0,16.0,36,0.00,,CLR,0.00,527.00,VWS V14.00,2014-04-19 21:16:00,
2014-04-19 16:17:00,75.5,46.0,30.02,SSW,207,9.0,16.0,35,0.00,,CLR,0.00,527.00,VWS V14.00,2014-04-19 21:17:00,
2014-04-19 16:18:00,75.5,46.0,30.02,SSW,194,4.0,16.0,35,0.00,,CLR,0.00,497.00,VWS V14.00,2014-04-19 21:18:00,
2014-04-19 16:20:00,75.7,46.9,30.01,SE,146,8.0,15.0,36,0.00,,CLR,0.00,483.00,VWS V14.00,2014-04-19 21:20:00,
2014-04-19 16:21:00,75.8,45.5,30.02,South,173,8.0,15.0,34,0.00,,CLR,0.00,471.00,VWS V14.00,2014-04-19 21:21:00,
2014-04-19 16:22:00,75.8,45.5,30.01,SSW,211,7.0,15.0,34,0.00,,CLR,0.00,471.00,VWS V14.00,2014-04-19 21:22:00,
2014-04-19 16:23:00,75.8,46.2,30.01,South,186,10.0,11.0,35,0.00,,CLR,0.00,432.00,VWS V14.00,2014-04-19 21:23:00,
2014-04-19 16:26:00,75.7,46.1,30.01,SSW,210,10.0,13.0,35,0.00,,CLR,0.00,492.00,VWS V14.00,2014-04-19 21:26:00,
2014-04-19 16:27:00,75.7,46.1,30.01,South,182,11.0,15.0,35,0.00,,CLR,0.00,501.00,VWS V14.00,2014-04-19 21:27:00,
2014-04-19 16:28:00,75.8,46.2,30.01,SSW,196,9.0,12.0,35,0.00,,CLR,0.00,457.00,VWS V14.00,2014-04-19 21:28:00,
2014-04-19 16:29:00,75.8,45.5,30.01,South,188,10.0,12.0,34,0.00,,CLR,0.00,461.00,VWS V14.00,2014-04-19 21:29:00,
2014-04-19 16:31:00,75.8,45.5,30.01,SSE,161,14.0,15.0,34,0.00,,CLR,0.00,508.00,VWS V14.00,2014-04-19 21:31:00,
2014-04-19 16:32:00,75.8,46.2,30.01,SSW,196,9.0,15.0,35,0.00,,CLR,0.00,545.00,VWS V14.00,2014-04-19 21:32:00,
2014-04-19 16:33:00,75.9,46.3,30.01,SSW,200,8.0,11.0,35,0.00,,CLR,0.00,499.00,VWS V14.00,2014-04-19 21:33:00,
2014-04-19 16:35:00,76.0,46.4,30.01,South,185,4.0,11.0,35,0.00,,CLR,0.00,478.00,VWS V14.00,2014-04-19 21:35:00,
2014-04-19 16:36:00,76.1,45.7,30.01,SSE,167,5.0,11.0,34,0.00,,CLR,0.00,462.00,VWS V14.00,2014-04-19 21:36:00,
2014-04-19 16:37:00,76.1,46.5,30.01,SSW,192,11.0,11.0,35,0.00,,CLR,0.00,446.00,VWS V14.00,2014-04-19 21:37:00,
2014-04-19 16:38:00,76.2,45.8,30.01,South,178,14.0,14.0,34,0.00,,CLR,0.00,445.00,VWS V14.00,2014-04-19 21:38:00,
2014-04-19 16:39:00,76.2,45.8,30.01,SSW,193,7.0,14.0,34,0.00,,CLR,0.00,364.00,VWS V14.00,2014-04-19 21:39:00,
2014-04-19 16:40:00,76.2,45.8,30.01,SSE,151,7.0,14.0,34,0.00,,CLR,0.00,380.00,VWS V14.00,2014-04-19 21:40:00,
2014-04-19 16:42:00,76.2,45.8,30.01,South,170,6.0,14.0,34,0.00,,CLR,0.00,496.00,VWS V14.00,2014-04-19 21:42:00,
2014-04-19 16:43:00,76.2,45.0,30.01,SSW,205,6.0,14.0,33,0.00,,CLR,0.00,496.00,VWS V14.00,2014-04-19 21:43:00,
2014-04-19 16:44:00,76.2,45.8,30.01,SSE,168,6.0,10.0,34,0.00,,CLR,0.00,568.00,VWS V14.00,2014-04-19 21:44:00,
2014-04-19 16:45:00,76.2,45.0,30.01,South,169,8.0,13.0,33,0.00,,CLR,0.00,480.00,VWS V14.00,2014-04-19 21:45:00,
2014-04-19 16:47:00,76.2,45.0,30.01,SSE,163,11.0,13.0,33,0.00,,CLR,0.00,450.00,VWS V14.00,2014-04-19 21:47:00,
2014-04-19 16:48:00,76.2,44.2,30.01,North,360,14.0,14.0,32,0.00,,CLR,0.00,450.00,VWS V14.00,2014-04-19 21:48:00,
2014-04-19 16:49:00,76.2,44.2,30.01,South,184,8.0,13.0,32,0.00,,CLR,0.00,364.00,VWS V14.00,2014-04-19 21:49:00,
2014-04-19 16:50:00,76.2,45.0,30.01,SSW,205,9.0,13.0,33,0.00,,CLR,0.00,294.00,VWS V14.00,2014-04-19 21:50:00,
2014-04-19 16:53:00,75.9,45.5,30.01,South,171,7.0,10.0,34,0.00,,CLR,0.00,281.00,VWS V14.00,2014-04-19 21:53:00,
2014-04-19 16:54:00,75.8,45.5,30.01,South,175,7.0,10.0,34,0.00,,CLR,0.00,325.00,VWS V14.00,2014-04-19 21:54:00,
2014-04-19 16:55:00,75.8,45.5,30.01,South,189,6.0,10.0,34,0.00,,CLR,0.00,339.00,VWS V14.00,2014-04-19 21:55:00,
2014-04-19 16:58:00,75.7,44.6,30.01,SSW,202,7.0,10.0,33,0.00,,CLR,0.00,362.00,VWS V14.00,2014-04-19 21:58:00,
2014-04-19 16:59:00,75.6,44.5,30.01,SSW,195,9.0,12.0,33,0.00,,CLR,0.00,362.00,VWS V14.00,2014-04-19 21:59:00,
2014-04-19 17:00:00,75.6,44.5,30.01,South,185,6.0,12.0,33,0.00,,CLR,0.00,383.00,VWS V14.00,2014-04-19 22:00:00,
2014-04-19 17:01:00,75.6,44.5,30.01,South,186,5.0,12.0,33,0.00,,CLR,0.00,383.00,VWS V14.00,2014-04-19 22:01:00,
2014-04-19 17:04:00,75.7,45.4,30.01,SSW,199,11.0,11.0,34,0.00,,CLR,0.00,318.00,VWS V14.00,2014-04-19 22:04:00,
2014-04-19 17:05:00,75.7,45.4,30.01,SSW,201,9.0,13.0,34,0.00,,CLR,0.00,315.00,VWS V14.00,2014-04-19 22:05:00,
2014-04-19 17:06:00,75.7,44.6,30.01,SSE,160,8.0,17.0,33,0.00,,CLR,0.00,338.00,VWS V14.00,2014-04-19 22:06:00,
2014-04-19 17:09:00,75.7,45.4,30.01,South,182,8.0,12.0,34,0.00,,CLR,0.00,360.00,VWS V14.00,2014-04-19 22:09:00,
2014-04-19 17:10:00,75.7,45.4,30.01,SSW,197,11.0,13.0,34,0.00,,CLR,0.00,357.00,VWS V14.00,2014-04-19 22:10:00,
2014-04-19 17:11:00,75.7,44.6,30.01,South,188,6.0,13.0,33,0.00,,CLR,0.00,381.00,VWS V14.00,2014-04-19 22:11:00,
2014-04-19 17:14:00,75.8,44.7,30.00,SSW,208,8.0,19.0,33,0.00,,CLR,0.00,380.00,VWS V14.00,2014-04-19 22:14:00,
2014-04-19 17:15:00,75.8,44.7,30.01,South,185,6.0,19.0,33,0.00,,CLR,0.00,348.00,VWS V14.00,2014-04-19 22:15:00,
2014-04-19 17:16:00,75.8,44.7,30.01,South,188,6.0,19.0,33,0.00,,CLR,0.00,439.00,VWS V14.00,2014-04-19 22:16:00,
2014-04-19 17:18:00,76.0,45.6,30.01,SW,219,5.0,8.0,34,0.00,,CLR,0.00,504.00,VWS V14.00,2014-04-19 22:18:00,
2014-04-19 17:19:00,76.1,45.7,30.01,SSW,196,8.0,14.0,34,0.00,,CLR,0.00,501.00,VWS V14.00,2014-04-19 22:19:00,
2014-04-19 17:20:00,76.1,45.7,30.01,South,188,12.0,14.0,34,0.00,,CLR,0.00,468.00,VWS V14.00,2014-04-19 22:20:00,
2014-04-19 17:21:00,76.2,45.0,30.01,SSW,207,5.0,14.0,33,0.00,,CLR,0.00,483.00,VWS V14.00,2014-04-19 22:21:00,
2014-04-19 17:23:00,76.5,44.5,30.01,SSW,204,6.0,12.0,32,0.00,,CLR,0.00,378.00,VWS V14.00,2014-04-19 22:23:00,
2014-04-19 17:24:00,76.5,44.5,30.00,SE,133,5.0,12.0,32,0.00,,CLR,0.00,381.00,VWS V14.00,2014-04-19 22:24:00,
2014-04-19 17:25:00,76.5,44.5,30.01,South,169,4.0,12.0,32,0.00,,CLR,0.00,362.00,VWS V14.00,2014-04-19 22:25:00,
2014-04-19 17:26:00,76.5,46.1,30.01,South,178,7.0,12.0,34,0.00,,CLR,0.00,330.00,VWS V14.00,2014-04-19 22:26:00,
2014-04-19 17:29:00,76.4,43.6,30.00,SSW,203,6.0,14.0,31,0.00,,CLR,0.00,292.00,VWS V14.00,2014-04-19 22:29:00,
2014-04-19 17:30:00,76.3,44.3,30.01,SSE,166,8.0,14.0,32,0.00,,CLR,0.00,272.00,VWS V14.00,2014-04-19 22:30:00,
2014-04-19 17:31:00,76.2,44.2,30.01,SSW,194,7.0,14.0,32,0.00,,CLR,0.00,311.00,VWS V14.00,2014-04-19 22:31:00,
2014-04-19 17:34:00,76.1,43.3,30.01,South,188,5.0,11.0,31,0.00,,CLR,0.00,255.00,VWS V14.00,2014-04-19 22:34:00,
2014-04-19 17:35:00,76.1,44.1,30.01,SSE,165,12.0,15.0,32,0.00,,CLR,0.00,234.00,VWS V14.00,2014-04-19 22:35:00,
2014-04-19 17:36:00,76.0,43.2,30.01,South,180,10.0,15.0,31,0.00,,CLR,0.00,234.00,VWS V14.00,2014-04-19 22:36:00,
2014-04-19 17:37:00,76.0,44.0,30.01,SSE,153,7.0,15.0,32,0.00,,CLR,0.00,185.00,VWS V14.00,2014-04-19 22:37:00,
2014-04-19 17:40:00,75.6,43.7,30.01,SSE,166,10.0,15.0,32,0.00,,CLR,0.00,200.00,VWS V14.00,2014-04-19 22:40:00,
2014-04-19 17:41:00,75.5,44.4,30.01,South,178,8.0,15.0,33,0.00,,CLR,0.00,156.00,VWS V14.00,2014-04-19 22:41:00,
2014-04-19 17:42:00,75.4,44.3,30.01,South,191,11.0,15.0,33,0.00,,CLR,0.00,156.00,VWS V14.00,2014-04-19 22:42:00,
2014-04-19 17:45:00,75.1,44.1,30.01,SSW,211,6.0,11.0,33,0.00,,CLR,0.00,125.00,VWS V14.00,2014-04-19 22:45:00,
2014-04-19 17:46:00,75.0,44.8,30.01,South,177,5.0,11.0,34,0.00,,CLR,0.00,125.00,VWS V14.00,2014-04-19 22:46:00,
2014-04-19 17:47:00,74.9,44.7,30.01,South,184,3.0,11.0,34,0.00,,CLR,0.00,120.00,VWS V14.00,2014-04-19 22:47:00,
2014-04-19 17:48:00,74.9,44.7,30.01,SSW,194,2.0,5.0,34,0.00,,CLR,0.00,118.00,VWS V14.00,2014-04-19 22:48:00,
2014-04-19 17:50:00,74.8,43.8,30.01,SSW,200,8.0,12.0,33,0.00,,CLR,0.00,123.00,VWS V14.00,2014-04-19 22:50:00,
2014-04-19 17:51:00,74.8,43.8,30.01,SSW,197,5.0,12.0,33,0.00,,CLR,0.00,123.00,VWS V14.00,2014-04-19 22:51:00,
2014-04-19 17:52:00,74.7,44.5,30.01,SSW,210,7.0,12.0,34,0.00,,CLR,0.00,127.00,VWS V14.00,2014-04-19 22:52:00,
2014-04-19 17:53:00,74.7,45.3,30.01,SSW,198,6.0,10.0,35,0.00,,CLR,0.00,127.00,VWS V14.00,2014-04-19 22:53:00,
2014-04-19 17:56:00,74.6,44.4,30.01,SSW,203,8.0,11.0,34,0.00,,CLR,0.00,116.00,VWS V14.00,2014-04-19 22:56:00,
2014-04-19 17:57:00,74.5,45.1,30.01,South,185,7.0,13.0,35,0.00,,CLR,0.00,109.00,VWS V14.00,2014-04-19 22:57:00,
2014-04-19 17:58:00,74.5,45.1,30.01,South,185,5.0,13.0,35,0.00,,CLR,0.00,109.00,VWS V14.00,2014-04-19 22:58:00,
2014-04-19 18:01:00,74.4,45.0,30.01,SSE,165,7.0,12.0,35,0.00,,CLR,0.00,97.00,VWS V14.00,2014-04-19 23:01:00,
2014-04-19 18:02:00,74.4,45.7,30.01,SSW,194,6.0,12.0,36,0.00,,CLR,0.00,88.00,VWS V14.00,2014-04-19 23:02:00,
2014-04-19 18:03:00,74.4,45.7,30.01,South,183,3.0,12.0,36,0.00,,CLR,0.00,81.00,VWS V14.00,2014-04-19 23:03:00,
2014-04-19 18:04:00,74.3,45.7,30.01,SSW,199,6.0,7.0,36,0.00,,CLR,0.00,65.00,VWS V14.00,2014-04-19 23:04:00,
2014-04-19 18:06:00,74.2,44.8,30.01,SSW,194,7.0,10.0,35,0.00,,CLR,0.00,54.00,VWS V14.00,2014-04-19 23:06:00,
2014-04-19 18:07:00,74.2,44.8,30.01,SSW,194,6.0,10.0,35,0.00,,CLR,0.00,51.00,VWS V14.00,2014-04-19 23:07:00,
2014-04-19 18:08:00,74.2,44.8,30.01,South,187,4.0,5.0,35,0.00,,CLR,0.00,47.00,VWS V14.00,2014-04-19 23:08:00,
2014-04-19 18:09:00,74.2,44.8,30.01,South,182,3.0,9.0,35,0.00,,CLR,0.00,44.00,VWS V14.00,2014-04-19 23:09:00,
2014-04-19 18:11:00,74.0,45.4,30.01,South,175,5.0,9.0,36,0.00,,CLR,0.00,37.00,VWS V14.00,2014-04-19 23:11:00,
2014-04-19 18:13:00,74.0,45.4,30.01,SSE,165,7.0,9.0,36,0.00,,CLR,0.00,33.00,VWS V14.00,2014-04-19 23:13:00,
2014-04-19 18:14:00,73.9,45.3,30.01,South,190,4.0,8.0,36,0.00,,CLR,0.00,33.00,VWS V14.00,2014-04-19 23:14:00,
2014-04-19 18:16:00,73.8,45.2,30.01,South,182,6.0,13.0,36,0.00,,CLR,0.00,35.00,VWS V14.00,2014-04-19 23:16:00,
2014-04-19 18:18:00,73.8,45.2,30.01,SSE,167,7.0,9.0,36,0.00,,CLR,0.00,40.00,VWS V14.00,2014-04-19 23:18:00,
2014-04-19 18:19:00,73.8,45.2,30.01,SSW,202,8.0,9.0,36,0.00,,CLR,0.00,44.00,VWS V14.00,2014-04-19 23:19:00,
2014-04-19 18:20:00,73.7,45.1,30.01,South,184,2.0,10.0,36,0.00,,CLR,0.00,47.00,VWS V14.00,2014-04-19 23:20:00,
2014-04-19 18:22:00,73.7,45.1,30.01,SSW,201,4.0,10.0,36,0.00,,CLR,0.00,58.00,VWS V14.00,2014-04-19 23:22:00,
2014-04-19 18:23:00,73.7,45.1,30.01,South,173,4.0,10.0,36,0.00,,CLR,0.00,58.00,VWS V14.00,2014-04-19 23:23:00,
2014-04-19 18:24:00,73.6,45.0,30.01,SSE,167,8.0,8.0,36,0.00,,CLR,0.00,65.00,VWS V14.00,2014-04-19 23:24:00,
2014-04-19 18:25:00,73.6,45.8,30.01,South,178,4.0,8.0,37,0.00,,CLR,0.00,70.00,VWS V14.00,2014-04-19 23:25:00,
2014-04-19 18:27:00,73.5,44.9,30.01,South,170,2.0,8.0,36,0.00,,CLR,0.00,76.00,VWS V14.00,2014-04-19 23:27:00,
2014-04-19 18:28:00,73.5,45.7,30.01,SSW,193,4.0,5.0,37,0.00,,CLR,0.00,79.00,VWS V14.00,2014-04-19 23:28:00,
2014-04-19 18:29:00,73.5,45.7,30.01,South,180,4.0,5.0,37,0.00,,CLR,0.00,81.00,VWS V14.00,2014-04-19 23:29:00,
2014-04-19 18:31:00,73.5,45.7,30.01,South,182,4.0,8.0,37,0.00,,CLR,0.00,83.00,VWS V14.00,2014-04-19 23:31:00,
2014-04-19 18:33:00,73.5,44.9,30.01,SSW,202,5.0,7.0,36,0.00,,CLR,0.00,83.00,VWS V14.00,2014-04-19 23:33:00,
2014-04-19 18:34:00,73.5,45.7,30.01,South,186,4.0,9.0,37,0.00,,CLR,0.00,86.00,VWS V14.00,2014-04-19 23:34:00,
2014-04-19 18:36:00,73.5,45.7,30.01,South,180,3.0,9.0,37,0.00,,CLR,0.00,90.00,VWS V14.00,2014-04-19 23:36:00,
2014-04-19 18:38:00,73.5,45.7,30.00,South,188,3.0,3.0,37,0.00,,CLR,0.00,91.00,VWS V14.00,2014-04-19 23:38:00,
2014-04-19 18:40:00,73.5,44.9,30.00,South,185,5.0,10.0,36,0.00,,FEW095,0.00,93.00,VWS V14.00,2014-04-19 23:40:00,
2014-04-19 18:41:00,73.5,45.7,30.00,South,176,5.0,10.0,37,0.00,,FEW095,0.00,95.00,VWS V14.00,2014-04-19 23:41:00,
2014-04-19 18:43:00,73.5,45.7,30.00,South,176,4.0,5.0,37,0.00,,FEW095,0.00,97.00,VWS V14.00,2014-04-19 23:43:00,
2014-04-19 18:44:00,73.5,45.7,30.00,South,180,3.0,6.0,37,0.00,,FEW095,0.00,98.00,VWS V14.00,2014-04-19 23:44:00,
2014-04-19 18:45:00,73.5,45.7,30.00,South,174,4.0,8.0,37,0.00,,FEW095,0.00,104.00,VWS V14.00,2014-04-19 23:45:00,
2014-04-19 18:46:00,73.5,44.9,30.00,SSW,199,5.0,8.0,36,0.00,,FEW095,0.00,104.00,VWS V14.00,2014-04-19 23:46:00,
2014-04-19 18:48:00,73.5,45.7,30.00,SSE,164,7.0,11.0,37,0.00,,FEW095,0.00,116.00,VWS V14.00,2014-04-19 23:48:00,
2014-04-19 18:49:00,73.6,45.8,30.00,SSE,167,6.0,11.0,37,0.00,,FEW095,0.00,120.00,VWS V14.00,2014-04-19 23:49:00,
2014-04-19 18:51:00,73.6,45.8,30.00,SSW,202,5.0,11.0,37,0.00,,FEW095,0.00,125.00,VWS V14.00,2014-04-19 23:51:00,
2014-04-19 18:54:00,73.6,45.8,30.00,SSW,207,3.0,7.0,37,0.00,,FEW095,0.00,123.00,VWS V14.00,2014-04-19 23:54:00,
2014-04-19 18:56:00,73.7,46.5,30.01,SSW,200,4.0,7.0,38,0.00,,FEW095,0.00,120.00,VWS V14.00,2014-04-19 23:56:00,
2014-04-19 18:59:00,73.7,45.8,30.01,South,190,4.0,9.0,37,0.00,,FEW095,0.00,113.00,VWS V14.00,2014-04-19 23:59:00,
2014-04-19 19:00:00,73.7,45.8,30.01,South,187,4.0,11.0,37,0.00,,BKN095,0.00,109.00,VWS V14.00,2014-04-20 00:00:00,
2014-04-19 19:01:00,73.7,45.8,30.01,South,182,4.0,11.0,37,0.00,,BKN095,0.00,109.00,VWS V14.00,2014-04-20 00:01:00,
2014-04-19 19:04:00,73.8,45.9,30.00,SSW,209,6.0,11.0,37,0.00,,BKN095,0.00,107.00,VWS V14.00,2014-04-20 00:04:00,
2014-04-19 19:05:00,73.7,45.8,30.00,South,180,6.0,13.0,37,0.00,,BKN095,0.00,105.00,VWS V14.00,2014-04-20 00:05:00,
2014-04-19 19:06:00,73.7,45.8,30.00,South,171,2.0,13.0,37,0.00,,BKN095,0.00,104.00,VWS V14.00,2014-04-20 00:06:00,
2014-04-19 19:07:00,73.7,45.8,30.00,South,185,3.0,13.0,37,0.00,,BKN095,0.00,100.00,VWS V14.00,2014-04-20 00:07:00,
2014-04-19 19:09:00,73.7,45.8,30.00,South,185,6.0,11.0,37,0.00,,BKN095,0.00,84.00,VWS V14.00,2014-04-20 00:09:00,
2014-04-19 19:10:00,73.7,45.8,30.00,SSE,165,5.0,11.0,37,0.00,,BKN095,0.00,83.00,VWS V14.00,2014-04-20 00:10:00,
2014-04-19 19:11:00,73.7,45.8,30.00,South,182,3.0,11.0,37,0.00,,BKN095,0.00,77.00,VWS V14.00,2014-04-20 00:11:00,
2014-04-19 19:12:00,73.7,45.8,30.00,SSE,163,6.0,11.0,37,0.00,,BKN095,0.00,76.00,VWS V14.00,2014-04-20 00:12:00,
2014-04-19 19:14:00,73.7,45.1,30.00,South,185,5.0,10.0,36,0.00,,BKN095,0.00,65.00,VWS V14.00,2014-04-20 00:14:00,
2014-04-19 19:15:00,73.7,45.8,30.00,South,185,3.0,10.0,37,0.00,,BKN095,0.00,65.00,VWS V14.00,2014-04-20 00:15:00,
2014-04-19 19:16:00,73.7,45.8,30.00,South,190,7.0,10.0,37,0.00,,BKN095,0.00,67.00,VWS V14.00,2014-04-20 00:16:00,
2014-04-19 19:17:00,73.6,45.8,30.00,SSW,194,4.0,11.0,37,0.00,,BKN095,0.00,63.00,VWS V14.00,2014-04-20 00:17:00,
2014-04-19 19:19:00,73.6,45.8,30.00,South,170,9.0,10.0,37,0.00,,BKN095,0.00,60.00,VWS V14.00,2014-04-20 00:19:00,
2014-04-19 19:20:00,73.6,45.0,30.00,SSW,209,5.0,10.0,36,0.00,,BKN095,0.00,60.00,VWS V14.00,2014-04-20 00:20:00,
2014-04-19 19:21:00,73.6,45.0,30.00,SSE,167,10.0,10.0,36,0.00,,BKN095,0.00,58.00,VWS V14.00,2014-04-20 00:21:00,
2014-04-19 19:22:00,73.6,45.8,30.00,South,173,5.0,11.0,37,0.00,,BKN095,0.00,58.00,VWS V14.00,2014-04-20 00:22:00,
2014-04-19 19:23:00,73.6,45.0,30.00,South,180,5.0,12.0,36,0.00,,BKN095,0.00,49.00,VWS V14.00,2014-04-20 00:23:00,
2014-04-19 19:24:00,73.5,44.9,30.00,South,180,4.0,10.0,36,0.00,,BKN095,0.00,44.00,VWS V14.00,2014-04-20 00:24:00,
2014-04-19 19:25:00,73.5,45.7,30.00,South,180,5.0,10.0,37,0.00,,BKN095,0.00,44.00,VWS V14.00,2014-04-20 00:25:00,
2014-04-19 19:27:00,73.4,45.6,30.01,South,169,5.0,10.0,37,0.00,,BKN095,0.00,39.00,VWS V14.00,2014-04-20 00:27:00,
2014-04-19 19:28:00,73.4,45.6,30.01,SW,215,6.0,10.0,37,0.00,,BKN095,0.00,33.00,VWS V14.00,2014-04-20 00:28:00,
2014-04-19 19:30:00,73.3,44.8,30.00,ESE,123,8.0,10.0,36,0.00,,BKN095,0.00,32.00,VWS V14.00,2014-04-20 00:30:00,
2014-04-19 19:32:00,73.1,44.6,30.00,South,190,7.0,10.0,36,0.00,,BKN095,0.00,26.00,VWS V14.00,2014-04-20 00:32:00,
2014-04-19 19:33:00,73.1,45.3,30.00,ESE,112,7.0,9.0,37,0.00,,BKN095,0.00,26.00,VWS V14.00,2014-04-20 00:33:00,
2014-04-19 19:35:00,73.0,45.2,30.00,SSE,167,5.0,9.0,37,0.00,,BKN095,0.00,25.00,VWS V14.00,2014-04-20 00:35:00,
2014-04-19 19:37:00,72.8,45.0,30.01,SSE,167,2.0,9.0,37,0.00,,BKN095,0.00,19.00,VWS V14.00,2014-04-20 00:37:00,
2014-04-19 19:38:00,72.8,45.0,30.01,SSE,164,5.0,9.0,37,0.00,,BKN095,0.00,19.00,VWS V14.00,2014-04-20 00:38:00,
2014-04-19 19:40:00,72.7,45.0,30.01,South,182,4.0,9.0,37,0.00,,OVC095,0.00,18.00,VWS V14.00,2014-04-20 00:40:00,
2014-04-19 19:42:00,72.5,45.5,30.01,SSE,165,1.0,9.0,38,0.00,,OVC095,0.00,16.00,VWS V14.00,2014-04-20 00:42:00,
2014-04-19 19:43:00,72.4,45.4,30.01,South,173,8.0,9.0,38,0.00,,OVC095,0.00,16.00,VWS V14.00,2014-04-20 00:43:00,
2014-04-19 19:45:00,72.2,45.2,30.01,South,190,3.0,8.0,38,0.00,,OVC095,0.00,12.00,VWS V14.00,2014-04-20 00:45:00,
2014-04-19 19:46:00,72.1,45.1,30.01,South,186,2.0,8.0,38,0.00,,OVC095,0.00,11.00,VWS V14.00,2014-04-20 00:46:00,
2014-04-19 19:48:00,72.0,45.0,30.01,SSE,167,2.0,8.0,38,0.00,,OVC095,0.00,9.00,VWS V14.00,2014-04-20 00:48:00,
2014-04-19 19:50:00,71.8,45.5,30.01,South,174,4.0,6.0,39,0.00,,OVC095,0.00,7.00,VWS V14.00,2014-04-20 00:50:00,
2014-04-19 19:52:00,71.7,45.5,30.01,South,174,0.0,6.0,39,0.00,,OVC095,0.00,5.00,VWS V14.00,2014-04-20 00:52:00,
2014-04-19 19:53:00,71.6,45.4,30.01,South,174,1.0,1.0,39,0.00,,OVC095,0.00,5.00,VWS V14.00,2014-04-20 00:53:00,
2014-04-19 19:55:00,71.4,45.2,30.01,South,180,3.0,7.0,39,0.00,,OVC095,0.00,5.00,VWS V14.00,2014-04-20 00:55:00,
2014-04-19 19:57:00,71.3,45.1,30.01,South,178,6.0,8.0,39,0.00,,OVC095,0.00,0.00,VWS V14.00,2014-04-20 00:57:00,
2014-04-19 19:58:00,71.3,45.1,30.01,SSE,162,6.0,6.0,39,0.00,,OVC095,0.00,0.00,VWS V14.00,2014-04-20 00:58:00,
2014-04-19 20:00:00,71.1,44.9,30.01,South,178,4.0,7.0,39,0.00,,BKN100,0.00,0.00,VWS V14.00,2014-04-20 01:00:00,
2014-04-19 20:02:00,71.0,44.8,30.01,South,177,5.0,7.0,39,0.00,,BKN100,0.00,0.00,VWS V14.00,2014-04-20 01:02:00,
2014-04-19 20:03:00,71.0,45.5,30.01,South,179,1.0,4.0,40,0.00,,BKN100,0.00,0.00,VWS V14.00,2014-04-20 01:03:00,
2014-04-19 20:05:00,70.8,45.3,30.01,SSE,163,1.0,5.0,40,0.00,,BKN100,0.00,0.00,VWS V14.00,2014-04-20 01:05:00,
2014-04-19 20:08:00,70.5,45.0,30.01,SSE,167,2.0,4.0,40,0.00,,BKN100,0.00,0.00,VWS V14.00,2014-04-20 01:08:00,
2014-04-19 20:09:00,70.4,45.6,30.01,SSE,166,0.0,4.0,41,0.00,,BKN100,0.00,0.00,VWS V14.00,2014-04-20 01:09:00,
2014-04-19 20:11:00,70.2,45.4,30.01,SSE,165,0.0,5.0,41,0.00,,BKN100,0.00,0.00,VWS V14.00,2014-04-20 01:11:00,
2014-04-19 20:13:00,69.9,45.2,30.01,South,175,2.0,5.0,41,0.00,,BKN100,0.00,0.00,VWS V14.00,2014-04-20 01:13:00,
2014-04-19 20:14:00,69.8,45.1,30.01,South,175,2.0,5.0,41,0.00,,BKN100,0.00,0.00,VWS V14.00,2014-04-20 01:14:00,
2014-04-19 20:16:00,69.7,45.6,30.01,South,175,0.0,5.0,42,0.00,,BKN100,0.00,0.00,VWS V14.00,2014-04-20 01:16:00,
2014-04-19 20:18:00,69.4,45.3,30.01,South,171,5.0,5.0,42,0.00,,BKN100,0.00,0.00,VWS V14.00,2014-04-20 01:18:00,
2014-04-19 20:19:00,69.3,45.2,30.01,South,171,2.0,5.0,42,0.00,,BKN100,0.00,0.00,VWS V14.00,2014-04-20 01:19:00,
2014-04-19 20:21:00,69.2,45.8,30.01,South,174,5.0,5.0,43,0.00,,FEW100,0.00,0.00,VWS V14.00,2014-04-20 01:21:00,
2014-04-19 20:23:00,69.0,45.6,30.02,South,179,1.0,4.0,43,0.00,,FEW100,0.00,0.00,VWS V14.00,2014-04-20 01:23:00,
2014-04-19 20:24:00,69.0,45.6,30.02,South,178,0.0,4.0,43,0.00,,FEW100,0.00,0.00,VWS V14.00,2014-04-20 01:24:00,
2014-04-19 20:25:00,69.0,45.6,30.02,South,179,2.0,5.0,43,0.00,,FEW100,0.00,0.00,VWS V14.00,2014-04-20 01:25:00,
2014-04-19 20:26:00,69.0,45.6,30.02,South,180,0.0,5.0,43,0.00,,FEW100,0.00,0.00,VWS V14.00,2014-04-20 01:26:00,
2014-04-19 20:27:00,69.0,45.6,30.02,South,179,2.0,5.0,43,0.00,,FEW100,0.00,0.00,VWS V14.00,2014-04-20 01:27:00,
2014-04-19 20:29:00,68.9,45.5,30.02,South,184,0.0,3.0,43,0.00,,FEW100,0.00,0.00,VWS V14.00,2014-04-20 01:29:00,
2014-04-19 20:30:00,68.9,45.5,30.02,South,175,2.0,5.0,43,0.00,,FEW100,0.00,0.00,VWS V14.00,2014-04-20 01:30:00,
2014-04-19 20:31:00,68.9,45.5,30.02,South,178,5.0,5.0,43,0.00,,FEW100,0.00,0.00,VWS V14.00,2014-04-20 01:31:00,
2014-04-19 20:32:00,68.8,46.0,30.02,South,176,2.0,6.0,44,0.00,,FEW100,0.00,0.00,VWS V14.00,2014-04-20 01:32:00,
2014-04-19 20:34:00,68.8,46.0,30.02,South,180,3.0,4.0,44,0.00,,FEW100,0.00,0.00,VWS V14.00,2014-04-20 01:34:00,
2014-04-19 20:35:00,68.8,46.0,30.02,South,180,2.0,4.0,44,0.00,,FEW100,0.00,0.00,VWS V14.00,2014-04-20 01:35:00,
2014-04-19 20:36:00,68.8,46.0,30.02,South,180,2.0,4.0,44,0.00,,FEW100,0.00,0.00,VWS V14.00,2014-04-20 01:36:00,
2014-04-19 20:37:00,68.8,46.0,30.02,South,181,2.0,4.0,44,0.00,,FEW100,0.00,0.00,VWS V14.00,2014-04-20 01:37:00,
2014-04-19 20:39:00,68.7,45.9,30.02,South,172,2.0,4.0,44,0.00,,FEW100,0.00,0.00,VWS V14.00,2014-04-20 01:39:00,
2014-04-19 20:40:00,68.7,45.9,30.02,South,181,4.0,4.0,44,0.00,,FEW100,0.00,0.00,VWS V14.00,2014-04-20 01:40:00,
2014-04-19 20:41:00,68.6,46.4,30.02,South,182,1.0,4.0,45,0.00,,CLR,0.00,0.00,VWS V14.00,2014-04-20 01:41:00,
2014-04-19 20:42:00,68.6,45.8,30.02,South,181,0.0,5.0,44,0.00,,CLR,0.00,0.00,VWS V14.00,2014-04-20 01:42:00,
2014-04-19 20:45:00,68.5,45.8,30.02,South,182,1.0,2.0,44,0.00,,CLR,0.00,0.00,VWS V14.00,2014-04-20 01:45:00,
2014-04-19 20:46:00,68.5,46.3,30.02,South,182,0.0,2.0,45,0.00,,CLR,0.00,0.00,VWS V14.00,2014-04-20 01:46:00,
2014-04-19 20:47:00,68.5,46.3,30.02,South,182,0.0,2.0,45,0.00,,CLR,0.00,0.00,VWS V14.00,2014-04-20 01:47:00,
2014-04-19 20:50:00,68.4,46.2,30.02,South,181,0.0,2.0,45,0.00,,CLR,0.00,0.00,VWS V14.00,2014-04-20 01:50:00,
2014-04-19 20:51:00,68.3,46.2,30.02,South,174,0.0,5.0,45,0.00,,CLR,0.00,0.00,VWS V14.00,2014-04-20 01:51:00,
2014-04-19 20:52:00,68.3,46.2,30.02,South,172,2.0,5.0,45,0.00,,CLR,0.00,0.00,VWS V14.00,2014-04-20 01:52:00,
2014-04-19 20:55:00,68.2,46.7,30.02,South,175,4.0,6.0,46,0.00,,CLR,0.00,0.00,VWS V14.00,2014-04-20 01:55:00,
2014-04-19 20:56:00,68.2,46.7,30.02,South,174,0.0,7.0,46,0.00,,CLR,0.00,0.00,VWS V14.00,2014-04-20 01:56:00,
2014-04-19 20:57:00,68.2,46.7,30.02,SSE,163,2.0,7.0,46,0.00,,CLR,0.00,0.00,VWS V14.00,2014-04-20 01:57:00,
2014-04-19 20:58:00,68.2,46.7,30.02,SSE,166,4.0,5.0,46,0.00,,CLR,0.00,0.00,VWS V14.00,2014-04-20 01:58:00,
2014-04-19 21:01:00,68.1,46.6,30.02,South,175,4.0,5.0,46,0.00,,FEW090,0.00,0.00,VWS V14.00,2014-04-20 02:01:00,
2014-04-19 21:02:00,68.1,46.6,30.02,South,175,0.0,5.0,46,0.00,,FEW090,0.00,0.00,VWS V14.00,2014-04-20 02:02:00,
2014-04-19 21:04:00,68.1,46.6,30.02,South,172,5.0,6.0,46,0.00,,FEW090,0.00,0.00,VWS V14.00,2014-04-20 02:04:00,
2014-04-19 21:06:00,68.0,46.5,30.02,South,177,1.0,6.0,46,0.00,,FEW090,0.00,0.00,VWS V14.00,2014-04-20 02:06:00,
2014-04-19 21:07:00,68.0,46.5,30.02,South,173,4.0,7.0,46,0.00,,FEW090,0.00,0.00,VWS V14.00,2014-04-20 02:07:00,
2014-04-19 21:08:00,68.0,46.5,30.02,South,173,0.0,7.0,46,0.00,,FEW090,0.00,0.00,VWS V14.00,2014-04-20 02:08:00,
2014-04-19 21:09:00,68.0,46.5,30.02,South,169,0.0,6.0,46,0.00,,FEW090,0.00,0.00,VWS V14.00,2014-04-20 02:09:00,
2014-04-19 21:11:00,68.0,46.5,30.02,South,172,1.0,6.0,46,0.00,,FEW090,0.00,0.00,VWS V14.00,2014-04-20 02:11:00,
2014-04-19 21:12:00,68.0,46.5,30.02,South,171,2.0,6.0,46,0.00,,FEW090,0.00,0.00,VWS V14.00,2014-04-20 02:12:00,
2014-04-19 21:13:00,68.0,46.5,30.02,South,178,2.0,2.0,46,0.00,,FEW090,0.00,0.00,VWS V14.00,2014-04-20 02:13:00,
2014-04-19 21:16:00,67.9,46.4,30.03,South,169,2.0,7.0,46,0.00,,FEW090,0.00,0.00,VWS V14.00,2014-04-20 02:16:00,
2014-04-19 21:17:00,67.9,46.4,30.02,South,174,5.0,7.0,46,0.00,,FEW090,0.00,0.00,VWS V14.00,2014-04-20 02:17:00,
2014-04-19 21:18:00,67.9,46.4,30.02,SSE,167,4.0,6.0,46,0.00,,FEW090,0.00,0.00,VWS V14.00,2014-04-20 02:18:00,
2014-04-19 21:19:00,67.9,46.4,30.03,South,182,6.0,6.0,46,0.00,,FEW090,0.00,0.00,VWS V14.00,2014-04-20 02:19:00,
2014-04-19 21:21:00,68.0,46.5,30.03,South,173,5.0,7.0,46,0.00,,BKN090,0.00,0.00,VWS V14.00,2014-04-20 02:21:00,
2014-04-19 21:22:00,68.0,46.5,30.03,SSE,155,5.0,7.0,46,0.00,,BKN090,0.00,0.00,VWS V14.00,2014-04-20 02:22:00,
2014-04-19 21:23:00,68.0,46.5,30.03,SSE,166,9.0,9.0,46,0.00,,BKN090,0.00,0.00,VWS V14.00,2014-04-20 02:23:00,
2014-04-19 21:24:00,68.0,46.5,30.03,South,190,4.0,9.0,46,0.00,,BKN090,0.00,0.00,VWS V14.00,2014-04-20 02:24:00,
2014-04-19 21:27:00,68.0,46.5,30.03,South,182,3.0,9.0,46,0.00,,BKN090,0.00,0.00,VWS V14.00,2014-04-20 02:27:00,
2014-04-19 21:28:00,68.1,46.6,30.03,SSE,167,4.0,5.0,46,0.00,,BKN090,0.00,0.00,VWS V14.00,2014-04-20 02:28:00,
2014-04-19 21:29:00,68.1,46.6,30.03,SSE,168,5.0,7.0,46,0.00,,BKN090,0.00,0.00,VWS V14.00,2014-04-20 02:29:00,
2014-04-19 21:32:00,68.1,46.6,30.03,South,170,2.0,9.0,46,0.00,,BKN090,0.00,0.00,VWS V14.00,2014-04-20 02:32:00,
2014-04-19 21:33:00,68.1,46.6,30.03,South,180,4.0,4.0,46,0.00,,BKN090,0.00,0.00,VWS V14.00,2014-04-20 02:33:00,
2014-04-19 21:35:00,68.1,46.6,30.03,SSE,167,5.0,7.0,46,0.00,,BKN090,0.00,0.00,VWS V14.00,2014-04-20 02:35:00,
2014-04-19 21:37:00,68.1,46.6,30.03,SSE,167,7.0,8.0,46,0.00,,BKN090,0.00,0.00,VWS V14.00,2014-04-20 02:37:00,
2014-04-19 21:38:00,68.1,46.6,30.03,South,182,5.0,6.0,46,0.00,,BKN090,0.00,0.00,VWS V14.00,2014-04-20 02:38:00,
2014-04-19 21:39:00,68.1,46.6,30.03,South,178,4.0,9.0,46,0.00,,BKN090,0.00,0.00,VWS V14.00,2014-04-20 02:39:00,
2014-04-19 21:40:00,68.1,46.6,30.03,South,188,3.0,12.0,46,0.00,,OVC090,0.00,0.00,VWS V14.00,2014-04-20 02:40:00,
2014-04-19 21:42:00,68.1,46.6,30.03,South,184,3.0,12.0,46,0.00,,OVC090,0.00,0.00,VWS V14.00,2014-04-20 02:42:00,
2014-04-19 21:43:00,68.1,46.6,30.03,South,171,5.0,7.0,46,0.00,,OVC090,0.00,0.00,VWS V14.00,2014-04-20 02:43:00,
2014-04-19 21:44:00,68.1,46.6,30.03,South,184,6.0,7.0,46,0.00,,OVC090,0.00,0.00,VWS V14.00,2014-04-20 02:44:00,
2014-04-19 21:45:00,68.1,46.6,30.03,South,180,3.0,7.0,46,0.00,,OVC090,0.00,0.00,VWS V14.00,2014-04-20 02:45:00,
2014-04-19 21:47:00,68.0,46.5,30.03,South,179,4.0,7.0,46,0.00,,OVC090,0.00,0.00,VWS V14.00,2014-04-20 02:47:00,
2014-04-19 21:48:00,68.0,46.5,30.03,SSW,197,5.0,5.0,46,0.00,,OVC090,0.00,0.00,VWS V14.00,2014-04-20 02:48:00,
2014-04-19 21:49:00,68.0,46.5,30.03,South,180,3.0,5.0,46,0.00,,OVC090,0.00,0.00,VWS V14.00,2014-04-20 02:49:00,
2014-04-19 21:50:00,67.9,46.4,30.03,South,182,4.0,8.0,46,0.00,,OVC090,0.00,0.00,VWS V14.00,2014-04-20 02:50:00,
2014-04-19 21:51:00,67.9,46.4,30.03,South,183,3.0,8.0,46,0.00,,OVC090,0.00,0.00,VWS V14.00,2014-04-20 02:51:00,
2014-04-19 21:52:00,67.9,46.4,30.03,South,186,2.0,8.0,46,0.00,,OVC090,0.00,0.00,VWS V14.00,2014-04-20 02:52:00,
2014-04-19 21:53:00,67.8,46.3,30.03,SSE,165,8.0,8.0,46,0.00,,OVC090,0.00,0.00,VWS V14.00,2014-04-20 02:53:00,
2014-04-19 21:54:00,67.8,46.3,30.03,South,183,6.0,8.0,46,0.00,,OVC090,0.00,0.00,VWS V14.00,2014-04-20 02:54:00,
2014-04-19 21:56:00,67.8,46.3,30.03,South,171,7.0,8.0,46,0.00,,OVC090,0.00,0.00,VWS V14.00,2014-04-20 02:56:00,
2014-04-19 21:57:00,67.8,46.3,30.03,SSE,167,7.0,10.0,46,0.00,,OVC090,0.00,0.00,VWS V14.00,2014-04-20 02:57:00,
2014-04-19 21:59:00,67.7,46.2,30.03,SE,146,5.0,9.0,46,0.00,,OVC090,0.00,0.00,VWS V14.00,2014-04-20 02:59:00,
2014-04-19 22:01:00,67.7,46.2,30.03,South,178,7.0,10.0,46,0.00,,BKN090,0.00,0.00,VWS V14.00,2014-04-20 03:01:00,
2014-04-19 22:03:00,67.7,46.2,30.03,South,186,4.0,10.0,46,0.00,,BKN090,0.00,0.00,VWS V14.00,2014-04-20 03:03:00,
2014-04-19 22:04:00,67.7,46.2,30.03,South,173,5.0,6.0,46,0.00,,BKN090,0.00,0.00,VWS V14.00,2014-04-20 03:04:00,
2014-04-19 22:05:00,67.7,46.2,30.03,SSE,163,5.0,8.0,46,0.00,,BKN090,0.00,0.00,VWS V14.00,2014-04-20 03:05:00,
2014-04-19 22:06:00,67.7,46.8,30.03,SE,145,6.0,8.0,47,0.00,,BKN090,0.00,0.00,VWS V14.00,2014-04-20 03:06:00,
2014-04-19 22:07:00,67.7,46.2,30.03,South,178,4.0,8.0,46,0.00,,BKN090,0.00,0.00,VWS V14.00,2014-04-20 03:07:00,
2014-04-19 22:08:00,67.7,46.2,30.03,SSE,153,4.0,8.0,46,0.00,,BKN090,0.00,0.00,VWS V14.00,2014-04-20 03:08:00,
2014-04-19 22:09:00,67.7,46.8,30.03,South,175,8.0,9.0,47,0.00,,BKN090,0.00,0.00,VWS V14.00,2014-04-20 03:09:00,
2014-04-19 22:10:00,67.7,46.2,30.03,South,174,7.0,9.0,46,0.00,,BKN090,0.00,0.00,VWS V14.00,2014-04-20 03:10:00,
2014-04-19 22:12:00,67.6,46.7,30.03,South,174,4.0,11.0,47,0.00,,BKN090,0.00,0.00,VWS V14.00,2014-04-20 03:12:00,
2014-04-19 22:13:00,67.6,46.7,30.03,SSW,193,6.0,8.0,47,0.00,,BKN090,0.00,0.00,VWS V14.00,2014-04-20 03:13:00,
2014-04-19 22:14:00,67.6,46.7,30.03,South,171,5.0,8.0,47,0.00,,BKN090,0.00,0.00,VWS V14.00,2014-04-20 03:14:00,
2014-04-19 22:16:00,67.5,46.6,30.03,SSE,166,7.0,8.0,47,0.00,,BKN090,0.00,0.00,VWS V14.00,2014-04-20 03:16:00,
2014-04-19 22:17:00,67.5,46.6,30.03,South,186,8.0,10.0,47,0.00,,BKN090,0.00,0.00,VWS V14.00,2014-04-20 03:17:00,
2014-04-19 22:19:00,67.5,46.6,30.03,South,183,3.0,9.0,47,0.00,,BKN090,0.00,0.00,VWS V14.00,2014-04-20 03:19:00,
2014-04-19 22:20:00,67.4,46.5,30.03,South,169,11.0,11.0,47,0.00,,BKN090,0.00,0.00,VWS V14.00,2014-04-20 03:20:00,
2014-04-19 22:21:00,67.4,46.5,30.03,South,185,5.0,13.0,47,0.00,,OVC100,0.00,0.00,VWS V14.00,2014-04-20 03:21:00,
2014-04-19 22:23:00,67.5,46.6,30.03,South,178,6.0,13.0,47,0.00,,OVC100,0.00,0.00,VWS V14.00,2014-04-20 03:23:00,
2014-04-19 22:24:00,67.5,46.6,30.03,SSE,154,7.0,8.0,47,0.00,,OVC100,0.00,0.00,VWS V14.00,2014-04-20 03:24:00,
2014-04-19 22:25:00,67.5,46.6,30.03,South,172,6.0,8.0,47,0.00,,OVC100,0.00,0.00,VWS V14.00,2014-04-20 03:25:00,
2014-04-19 22:26:00,67.5,46.6,30.03,SSW,196,10.0,10.0,47,0.00,,OVC100,0.00,0.00,VWS V14.00,2014-04-20 03:26:00,
2014-04-19 22:28:00,67.5,46.6,30.03,South,170,2.0,2.0,47,0.00,,OVC100,0.00,0.00,VWS V14.00,2014-04-20 03:28:00,
2014-04-19 22:29:00,67.6,46.7,30.03,SSW,202,4.0,8.0,47,0.00,,OVC100,0.00,0.00,VWS V14.00,2014-04-20 03:29:00,
2014-04-19 22:30:00,67.6,46.7,30.03,SSE,168,6.0,11.0,47,0.00,,OVC100,0.00,0.00,VWS V14.00,2014-04-20 03:30:00,
2014-04-19 22:31:00,67.6,46.7,30.03,South,182,5.0,11.0,47,0.00,,OVC100,0.00,0.00,VWS V14.00,2014-04-20 03:31:00,
2014-04-19 22:33:00,67.6,46.7,30.03,SSE,159,2.0,4.0,47,0.00,,OVC100,0.00,0.00,VWS V14.00,2014-04-20 03:33:00,
2014-04-19 22:34:00,67.6,46.7,30.03,South,177,8.0,12.0,47,0.00,,OVC100,0.00,0.00,VWS V14.00,2014-04-20 03:34:00,
2014-04-19 22:35:00,67.6,46.7,30.03,South,189,8.0,12.0,47,0.00,,OVC100,0.00,0.00,VWS V14.00,2014-04-20 03:35:00,
2014-04-19 22:36:00,67.6,46.7,30.03,SSE,162,8.0,12.0,47,0.00,,OVC100,0.00,0.00,VWS V14.00,2014-04-20 03:36:00,
2014-04-19 22:38:00,67.7,46.8,30.03,SE,143,5.0,5.0,47,0.00,,OVC100,0.00,0.00,VWS V14.00,2014-04-20 03:38:00,
2014-04-19 22:39:00,67.7,46.8,30.03,South,169,8.0,9.0,47,0.00,,OVC100,0.00,0.00,VWS V14.00,2014-04-20 03:39:00,
2014-04-19 22:40:00,67.7,46.8,30.03,South,180,5.0,9.0,47,0.00,,BKN110,0.00,0.00,VWS V14.00,2014-04-20 03:40:00,
2014-04-19 22:41:00,67.7,46.8,30.03,South,187,4.0,9.0,47,0.00,,BKN110,0.00,0.00,VWS V14.00,2014-04-20 03:41:00,
2014-04-19 22:43:00,67.6,46.7,30.03,SSE,164,7.0,8.0,47,0.00,,BKN110,0.00,0.00,VWS V14.00,2014-04-20 03:43:00,
2014-04-19 22:45:00,67.6,46.7,30.03,South,178,4.0,9.0,47,0.00,,BKN110,0.00,0.00,VWS V14.00,2014-04-20 03:45:00,
2014-04-19 22:46:00,67.6,46.7,30.03,South,179,5.0,9.0,47,0.00,,BKN110,0.00,0.00,VWS V14.00,2014-04-20 03:46:00,
2014-04-19 22:47:00,67.6,46.7,30.03,South,184,4.0,10.0,47,0.00,,BKN110,0.00,0.00,VWS V14.00,2014-04-20 03:47:00,
2014-04-19 22:48:00,67.6,46.7,30.03,SSW,192,6.0,6.0,47,0.00,,BKN110,0.00,0.00,VWS V14.00,2014-04-20 03:48:00,
2014-04-19 22:50:00,67.5,46.6,30.03,SSE,167,12.0,13.0,47,0.00,,BKN110,0.00,0.00,VWS V14.00,2014-04-20 03:50:00,
2014-04-19 22:51:00,67.5,46.6,30.03,SSE,167,9.0,13.0,47,0.00,,BKN110,0.00,0.00,VWS V14.00,2014-04-20 03:51:00,
2014-04-19 22:52:00,67.5,46.6,30.03,South,169,8.0,13.0,47,0.00,,BKN110,0.00,0.00,VWS V14.00,2014-04-20 03:52:00,
2014-04-19 22:54:00,67.5,46.6,30.02,SSE,148,5.0,7.0,47,0.00,,BKN110,0.00,0.00,VWS V14.00,2014-04-20 03:54:00,
2014-04-19 22:56:00,67.6,46.7,30.03,South,175,9.0,13.0,47,0.00,,BKN110,0.00,0.00,VWS V14.00,2014-04-20 03:56:00,
2014-04-19 22:57:00,67.6,46.7,30.03,SSE,167,7.0,13.0,47,0.00,,BKN110,0.00,0.00,VWS V14.00,2014-04-20 03:57:00,
2014-04-19 22:58:00,67.6,46.7,30.03,South,182,5.0,6.0,47,0.00,,BKN110,0.00,0.00,VWS V14.00,2014-04-20 03:58:00,
2014-04-19 22:59:00,67.6,46.7,30.03,South,182,4.0,8.0,47,0.00,,BKN110,0.00,0.00,VWS V14.00,2014-04-20 03:59:00,
2014-04-19 23:01:00,67.5,46.6,30.03,SSE,151,9.0,10.0,47,0.00,,BKN100,0.00,0.00,VWS V14.00,2014-04-20 04:01:00,
2014-04-19 23:02:00,67.5,46.6,30.03,SSE,162,7.0,10.0,47,0.00,,BKN100,0.00,0.00,VWS V14.00,2014-04-20 04:02:00,
2014-04-19 23:06:00,67.4,46.5,30.03,SSW,198,3.0,9.0,47,0.00,,BKN100,0.00,0.00,VWS V14.00,2014-04-20 04:06:00,
2014-04-19 23:07:00,67.4,46.5,30.03,South,185,4.0,9.0,47,0.00,,BKN100,0.00,0.00,VWS V14.00,2014-04-20 04:07:00,
2014-04-19 23:11:00,67.2,46.9,30.03,SSE,163,6.0,11.0,48,0.00,,BKN100,0.00,0.00,VWS V14.00,2014-04-20 04:11:00,
2014-04-19 23:12:00,67.2,46.9,30.03,South,182,4.0,11.0,48,0.00,,BKN100,0.00,0.00,VWS V14.00,2014-04-20 04:12:00,
2014-04-19 23:16:00,67.1,46.8,30.03,SSE,167,8.0,10.0,48,0.00,,BKN100,0.00,0.00,VWS V14.00,2014-04-20 04:16:00,
2014-04-19 23:17:00,67.1,46.8,30.03,South,171,4.0,10.0,48,0.00,,BKN100,0.00,0.00,VWS V14.00,2014-04-20 04:17:00,
2014-04-19 23:18:00,67.1,46.8,30.03,South,191,6.0,10.0,48,0.00,,BKN100,0.00,0.00,VWS V14.00,2014-04-20 04:18:00,
2014-04-19 23:21:00,67.0,46.7,30.03,South,175,5.0,10.0,48,0.00,,OVC095,0.00,0.00,VWS V14.00,2014-04-20 04:21:00,
2014-04-19 23:22:00,67.0,46.7,30.03,SSE,159,4.0,10.0,48,0.00,,OVC095,0.00,0.00,VWS V14.00,2014-04-20 04:22:00,
2014-04-19 23:23:00,67.0,46.7,30.03,South,174,5.0,5.0,48,0.00,,OVC095,0.00,0.00,VWS V14.00,2014-04-20 04:23:00,
2014-04-19 23:26:00,66.9,46.6,30.03,South,181,4.0,8.0,48,0.00,,OVC095,0.00,0.00,VWS V14.00,2014-04-20 04:26:00,
2014-04-19 23:27:00,66.9,46.6,30.03,SSW,196,5.0,8.0,48,0.00,,OVC095,0.00,0.00,VWS V14.00,2014-04-20 04:27:00,
2014-04-19 23:28:00,66.9,46.6,30.03,South,178,7.0,7.0,48,0.00,,OVC095,0.00,0.00,VWS V14.00,2014-04-20 04:28:00,
2014-04-19 23:29:00,66.9,47.1,30.03,South,179,1.0,7.0,49,0.00,,OVC095,0.00,0.00,VWS V14.00,2014-04-20 04:29:00,
2014-04-19 23:32:00,66.9,46.6,30.03,South,182,2.0,10.0,48,0.00,,OVC095,0.00,0.00,VWS V14.00,2014-04-20 04:32:00,
2014-04-19 23:33:00,66.9,46.6,30.03,South,180,3.0,4.0,48,0.00,,OVC095,0.00,0.00,VWS V14.00,2014-04-20 04:33:00,
2014-04-19 23:34:00,66.9,47.1,30.03,SSE,163,8.0,8.0,49,0.00,,OVC095,0.00,0.00,VWS V14.00,2014-04-20 04:34:00,
2014-04-19 23:37:00,66.8,46.5,30.03,SSE,153,5.0,9.0,48,0.00,,OVC095,0.00,0.00,VWS V14.00,2014-04-20 04:37:00,
2014-04-19 23:38:00,66.8,46.5,30.03,SSE,165,6.0,6.0,48,0.00,,OVC095,0.00,0.00,VWS V14.00,2014-04-20 04:38:00,
2014-04-19 23:39:00,66.8,46.5,30.03,SSW,201,4.0,7.0,48,0.00,,OVC095,0.00,0.00,VWS V14.00,2014-04-20 04:39:00,
2014-04-19 23:42:00,66.8,46.5,30.03,South,188,4.0,11.0,48,0.00,,OVC095,0.00,0.00,VWS V14.00,2014-04-20 04:42:00,
2014-04-19 23:43:00,66.7,46.4,30.03,South,180,6.0,9.0,48,0.00,,OVC095,0.00,0.00,VWS V14.00,2014-04-20 04:43:00,
2014-04-19 23:44:00,66.7,47.0,30.02,South,188,3.0,9.0,49,0.00,,OVC095,0.00,0.00,VWS V14.00,2014-04-20 04:44:00,
2014-04-19 23:46:00,66.6,46.3,30.03,South,181,2.0,9.0,48,0.00,,OVC095,0.00,0.00,VWS V14.00,2014-04-20 04:46:00,
2014-04-19 23:47:00,66.6,46.9,30.02,SSE,164,6.0,9.0,49,0.00,,OVC095,0.00,0.00,VWS V14.00,2014-04-20 04:47:00,
2014-04-19 23:48:00,66.5,46.8,30.03,SSE,151,5.0,7.0,49,0.00,,OVC095,0.00,0.00,VWS V14.00,2014-04-20 04:48:00,
2014-04-19 23:49:00,66.5,46.8,30.03,South,184,7.0,13.0,49,0.00,,OVC095,0.00,0.00,VWS V14.00,2014-04-20 04:49:00,
2014-04-19 23:50:00,66.5,46.8,30.03,South,169,2.0,13.0,49,0.00,,OVC095,0.00,0.00,VWS V14.00,2014-04-20 04:50:00,
2014-04-19 23:51:00,66.5,46.8,30.03,SSW,192,2.0,13.0,49,0.00,,OVC095,0.00,0.00,VWS V14.00,2014-04-20 04:51:00,
2014-04-19 23:52:00,66.4,46.7,30.02,SSE,152,5.0,13.0,49,0.00,,OVC095,0.00,0.00,VWS V14.00,2014-04-20 04:52:00,
2014-04-19 23:54:00,66.4,46.7,30.02,South,186,4.0,10.0,49,0.00,,OVC095,0.00,0.00,VWS V14.00,2014-04-20 04:54:00,
2014-04-19 23:55:00,66.4,46.7,30.02,South,180,3.0,10.0,49,0.00,,OVC095,0.00,0.00,VWS V14.00,2014-04-20 04:55:00,
2014-04-19 23:56:00,66.4,46.7,30.02,South,175,4.0,10.0,49,0.00,,OVC095,0.00,0.00,VWS V14.00,2014-04-20 04:56:00,
2014-04-19 23:57:00,66.3,46.6,30.03,South,169,4.0,10.0,49,0.00,,OVC095,0.00,0.00,VWS V14.00,2014-04-20 04:57:00,
2014-04-19 23:59:00,66.3,46.6,30.02,SSE,168,5.0,6.0,49,0.00,,OVC095,0.00,0.00,VWS V14.00,2014-04-20 04:59:00,